UAL6729 KLAX-NZAA

Flight info

Callsign UAL6729
Flight time 12h 34m
Altitude 28000
Route SUMMR2 DINTY DCT DUETS DCT 32N130W 30N135W/N0501F300 DCT FIZEL DCT 25N141W 20N146W 15N150W 10N154W/N0508F320 DCT WOSLU DCT 00N160W 05S163W 10S167W DCT DARMA/N0501F340 DCT 15S171W DCT OGELA B455 TV DCT 20S175W 25S178W 30S179E DCT TARIB
Aircraft B77W/H-SDE1E2E3FGHIJ2J3J4J5M1RWXY/LB1D1

Departure

Time 2026-04-25 06:25
Airport Los Angeles International Airport (KLAX)

Arrival

Time 2026-04-25 18:59
Airport Auckland International Airport (NZAA)
Time Latitude Longitude Altitude Speed Heading
2026-04-25 05:54 33.94100 -118.41080 98 ft 0 kts 83°
2026-04-25 06:13 33.94100 -118.41082 97 ft 2 kts 83°
2026-04-25 06:13 33.94096 -118.41113 99 ft 4 kts 83°
2026-04-25 06:13 33.94094 -118.41140 97 ft 2 kts 83°
2026-04-25 06:14 33.94068 -118.41187 96 ft 4 kts
2026-04-25 06:14 33.94043 -118.41187 96 ft 4 kts 353°
2026-04-25 06:14 33.94017 -118.41183 97 ft 2 kts 353°
2026-04-25 06:14 33.94014 -118.41183 97 ft 0 kts 353°
2026-04-25 06:18 33.94017 -118.41183 97 ft 3 kts 353°
2026-04-25 06:18 33.94062 -118.41190 98 ft 7 kts 353°
2026-04-25 06:18 33.94111 -118.41197 98 ft 7 kts 353°
2026-04-25 06:19 33.94159 -118.41204 98 ft 7 kts 353°
2026-04-25 06:19 33.94214 -118.41212 98 ft 11 kts 353°
2026-04-25 06:19 33.94314 -118.41228 100 ft 19 kts 352°
2026-04-25 06:19 33.94457 -118.41249 98 ft 21 kts 353°
2026-04-25 06:20 33.94595 -118.41270 98 ft 19 kts 353°
2026-04-25 06:20 33.94712 -118.41288 99 ft 10 kts 353°
2026-04-25 06:20 33.94776 -118.41285 100 ft 9 kts 25°
2026-04-25 06:20 33.94802 -118.41218 102 ft 10 kts 83°
2026-04-25 06:21 33.94815 -118.41070 101 ft 26 kts 83°
2026-04-25 06:21 33.94832 -118.40906 102 ft 17 kts 83°
2026-04-25 06:21 33.94846 -118.40762 100 ft 17 kts 83°
2026-04-25 06:21 33.94862 -118.40615 101 ft 17 kts 83°
2026-04-25 06:22 33.94878 -118.40464 101 ft 19 kts 83°
2026-04-25 06:22 33.94894 -118.40306 99 ft 19 kts 83°
2026-04-25 06:22 33.94910 -118.40148 98 ft 19 kts 83°
2026-04-25 06:22 33.94924 -118.40000 98 ft 11 kts 83°
2026-04-25 06:23 33.94949 -118.39934 100 ft 9 kts 43°
2026-04-25 06:23 33.95006 -118.39918 100 ft 9 kts 349°
2026-04-25 06:23 33.95036 -118.39976 100 ft 9 kts 275°
2026-04-25 06:23 33.95033 -118.40033 100 ft 0 kts 262°
2026-04-25 06:24 33.95032 -118.40042 100 ft 7 kts 262°
2026-04-25 06:25 33.95005 -118.40303 104 ft 69 kts 263°
2026-04-25 06:25 33.94912 -118.41215 104 ft 149 kts 263°
2026-04-25 06:25 33.94739 -118.42744 140 ft 213 kts 261°
2026-04-25 06:25 33.94541 -118.44529 1126 ft 208 kts 262°
2026-04-25 06:26 33.94364 -118.46229 2233 ft 201 kts 265°
2026-04-25 06:26 33.94284 -118.47964 2465 ft 217 kts 268°
2026-04-25 06:26 33.94236 -118.49854 2643 ft 236 kts 268°
2026-04-25 06:26 33.94177 -118.51893 2851 ft 253 kts 265°
2026-04-25 06:27 33.94009 -118.54048 3298 ft 263 kts 264°
2026-04-25 06:27 33.93820 -118.56266 3872 ft 269 kts 264°
2026-04-25 06:27 33.93635 -118.58505 4609 ft 269 kts 264°
2026-04-25 06:27 33.93456 -118.60746 5327 ft 269 kts 265°
2026-04-25 06:28 33.93277 -118.63003 5953 ft 273 kts 265°
2026-04-25 06:28 33.93096 -118.65294 6548 ft 277 kts 265°
2026-04-25 06:28 33.92916 -118.67609 7171 ft 278 kts 265°
2026-04-25 06:28 33.92739 -118.69901 7812 ft 279 kts 265°
2026-04-25 06:29 33.92558 -118.72232 8453 ft 280 kts 264°
2026-04-25 06:29 33.92376 -118.74570 9092 ft 281 kts 264°
2026-04-25 06:29 33.92193 -118.76925 9729 ft 283 kts 264°
2026-04-25 06:29 33.92007 -118.79289 10270 ft 286 kts 264°
2026-04-25 06:30 33.91813 -118.81753 10447 ft 305 kts 264°
2026-04-25 06:30 33.91646 -118.84379 10604 ft 324 kts 268°
2026-04-25 06:30 33.91702 -118.87169 10760 ft 343 kts 272°
2026-04-25 06:30 33.91845 -118.90085 11153 ft 353 kts 272°
2026-04-25 06:31 33.91975 -118.93070 11713 ft 359 kts 271°
2026-04-25 06:31 33.92077 -118.96081 12408 ft 360 kts 271°
2026-04-25 06:31 33.92168 -118.99103 13149 ft 360 kts 271°
2026-04-25 06:31 33.92559 -119.02039 13662 ft 366 kts 287°
2026-04-25 06:32 33.93747 -119.04776 14172 ft 372 kts 300°
2026-04-25 06:32 33.95169 -119.07406 14695 ft 376 kts 299°
2026-04-25 06:32 33.96576 -119.10076 15286 ft 379 kts 298°
2026-04-25 06:32 33.97983 -119.12786 15881 ft 381 kts 298°
2026-04-25 06:33 33.99388 -119.15510 16463 ft 384 kts 298°
2026-04-25 06:33 34.00851 -119.18211 16962 ft 389 kts 304°
2026-04-25 06:33 34.02857 -119.20464 17336 ft 400 kts 321°
2026-04-25 06:33 34.05200 -119.22328 17705 ft 406 kts 321°
2026-04-25 06:34 34.07539 -119.24268 18233 ft 409 kts 320°
2026-04-25 06:34 34.09839 -119.26223 18727 ft 411 kts 320°
2026-04-25 06:34 34.12203 -119.28253 19212 ft 413 kts 319°
2026-04-25 06:34 34.14523 -119.30255 19696 ft 416 kts 319°
2026-04-25 06:35 34.16886 -119.32295 20173 ft 419 kts 319°
2026-04-25 06:35 34.19268 -119.34351 20631 ft 422 kts 319°
2026-04-25 06:35 34.21669 -119.36424 21130 ft 425 kts 319°
2026-04-25 06:35 34.24079 -119.38505 21615 ft 427 kts 319°
2026-04-25 06:36 34.26502 -119.40598 22091 ft 429 kts 319°
2026-04-25 06:36 34.28940 -119.42706 22543 ft 432 kts 319°
2026-04-25 06:36 34.31393 -119.44828 22967 ft 435 kts 319°
2026-04-25 06:36 34.33862 -119.46966 23395 ft 438 kts 319°
2026-04-25 06:37 34.36346 -119.49121 23775 ft 438 kts 317°
2026-04-25 06:37 34.38523 -119.51622 23971 ft 430 kts 300°
2026-04-25 06:37 34.39891 -119.54795 24298 ft 423 kts 285°
2026-04-25 06:37 34.40607 -119.58180 24696 ft 420 kts 275°
2026-04-25 06:38 34.40703 -119.61696 25046 ft 417 kts 264°
2026-04-25 06:38 34.40446 -119.65199 25358 ft 420 kts 263°
2026-04-25 06:38 34.40151 -119.68725 25694 ft 422 kts 263°
2026-04-25 06:38 34.39854 -119.72275 26059 ft 424 kts 263°
2026-04-25 06:39 34.39568 -119.75837 26424 ft 425 kts 263°
2026-04-25 06:39 34.39294 -119.79408 26783 ft 427 kts 264°
2026-04-25 06:39 34.39028 -119.82999 27125 ft 429 kts 264°
2026-04-25 06:39 34.38767 -119.86606 27439 ft 431 kts 264°
2026-04-25 06:40 34.38511 -119.90185 27742 ft 433 kts 264°
2026-04-25 06:40 34.38249 -119.93837 27893 ft 438 kts 264°
2026-04-25 06:40 34.37984 -119.97521 27941 ft 438 kts 264°
2026-04-25 06:40 34.37720 -120.01186 27965 ft 436 kts 264°
2026-04-25 06:41 34.37456 -120.04833 27963 ft 434 kts 264°
2026-04-25 06:41 34.37191 -120.08466 27986 ft 433 kts 264°
2026-04-25 06:41 34.36925 -120.12102 27993 ft 433 kts 264°
2026-04-25 06:41 34.36658 -120.15731 27989 ft 433 kts 264°
2026-04-25 06:42 34.36389 -120.19367 28006 ft 434 kts 264°
2026-04-25 06:42 34.35848 -120.26640 28003 ft 434 kts 264°
2026-04-25 06:43 34.35302 -120.33930 28002 ft 435 kts 264°
2026-04-25 06:43 34.34752 -120.41225 28011 ft 436 kts 263°
2026-04-25 06:44 34.33802 -120.48402 27992 ft 434 kts 247°
2026-04-25 06:44 34.31079 -120.54873 28014 ft 433 kts 244°
2026-04-25 06:45 34.28439 -120.61469 28016 ft 437 kts 245°
2026-04-25 06:45 34.25820 -120.68134 28013 ft 440 kts 245°
2026-04-25 06:46 34.23629 -120.73687 28007 ft 440 kts 245°
2026-04-25 06:46 34.20560 -120.81423 28006 ft 438 kts 245°
2026-04-25 06:47 34.18363 -120.86942 28009 ft 437 kts 245°
2026-04-25 06:47 34.15728 -120.93549 28007 ft 435 kts 245°
2026-04-25 06:48 34.13094 -121.00140 28005 ft 435 kts 245°
2026-04-25 06:48 34.10457 -121.06726 28010 ft 435 kts 245°
2026-04-25 06:49 34.07826 -121.13285 28012 ft 436 kts 244°
2026-04-25 06:49 34.05174 -121.19882 28015 ft 437 kts 244°
2026-04-25 06:50 34.02516 -121.26483 28008 ft 438 kts 244°
2026-04-25 06:50 33.99866 -121.33049 28017 ft 438 kts 244°
2026-04-25 06:51 33.97195 -121.39656 28017 ft 438 kts 244°
2026-04-25 06:51 33.94518 -121.46263 28019 ft 438 kts 244°
2026-04-25 06:52 33.91839 -121.52864 28028 ft 438 kts 244°
2026-04-25 06:52 33.89172 -121.59424 28024 ft 438 kts 244°
2026-04-25 06:53 33.86486 -121.66015 28027 ft 438 kts 244°
2026-04-25 06:53 33.83795 -121.72608 28027 ft 439 kts 244°
2026-04-25 06:54 33.81120 -121.79147 28032 ft 439 kts 244°
2026-04-25 06:54 33.78421 -121.85733 28032 ft 439 kts 244°
2026-04-25 06:55 33.75718 -121.92316 28036 ft 439 kts 244°
2026-04-25 06:55 33.73008 -121.98904 28034 ft 439 kts 244°
2026-04-25 06:56 33.70295 -122.05486 28036 ft 439 kts 244°
2026-04-25 06:56 33.67601 -122.12010 28037 ft 439 kts 243°
2026-04-25 06:57 33.64885 -122.18575 28033 ft 438 kts 244°
2026-04-25 06:57 33.62174 -122.25113 28037 ft 437 kts 244°
2026-04-25 06:58 33.59469 -122.31627 28040 ft 435 kts 243°
2026-04-25 06:58 33.56763 -122.38132 28046 ft 435 kts 243°
2026-04-25 06:59 33.54075 -122.44580 28043 ft 435 kts 243°
2026-04-25 06:59 33.51365 -122.51073 28044 ft 436 kts 243°
2026-04-25 07:00 33.48649 -122.57577 28046 ft 436 kts 244°
2026-04-25 07:00 33.46827 -122.64488 28054 ft 436 kts 256°
2026-04-25 07:01 33.45486 -122.71592 28056 ft 437 kts 256°
2026-04-25 07:01 33.44099 -122.78699 28052 ft 438 kts 255°
2026-04-25 07:02 33.42661 -122.85762 28053 ft 439 kts 255°
2026-04-25 07:02 33.41190 -122.92854 28050 ft 439 kts 255°
2026-04-25 07:03 33.39705 -122.99973 28053 ft 440 kts 255°
2026-04-25 07:03 33.38228 -123.07037 28058 ft 440 kts 255°
2026-04-25 07:04 33.36739 -123.14141 28060 ft 440 kts 255°
2026-04-25 07:04 33.35248 -123.21236 28066 ft 440 kts 255°
2026-04-25 07:05 33.33749 -123.28350 28063 ft 441 kts 255°
2026-04-25 07:05 33.32243 -123.35473 28051 ft 442 kts 255°
2026-04-25 07:06 33.30740 -123.42557 28054 ft 442 kts 255°
2026-04-25 07:06 33.29223 -123.49688 28069 ft 442 kts 255°
2026-04-25 07:07 33.27712 -123.56773 28069 ft 442 kts 255°
2026-04-25 07:07 33.26185 -123.63906 28068 ft 442 kts 255°
2026-04-25 07:08 33.24657 -123.71027 28052 ft 442 kts 255°
2026-04-25 07:08 33.23125 -123.78144 28063 ft 442 kts 255°
2026-04-25 07:09 33.21599 -123.85209 28077 ft 442 kts 255°
2026-04-25 07:09 33.20060 -123.92316 28076 ft 442 kts 255°
2026-04-25 07:10 33.18512 -123.99442 28064 ft 442 kts 254°
2026-04-25 07:10 33.16968 -124.06526 28080 ft 443 kts 254°
2026-04-25 07:11 33.15411 -124.13652 28069 ft 444 kts 254°
2026-04-25 07:11 33.13846 -124.20794 28068 ft 445 kts 254°
2026-04-25 07:12 33.12276 -124.27939 28071 ft 445 kts 254°
2026-04-25 07:12 33.09911 -124.38661 28076 ft 445 kts 254°
2026-04-25 07:13 33.08331 -124.45805 28077 ft 445 kts 253°
2026-04-25 07:13 33.06779 -124.52953 28087 ft 445 kts 256°
2026-04-25 07:14 33.05527 -124.60180 28081 ft 445 kts 257°
2026-04-25 07:14 33.04307 -124.67364 28076 ft 444 kts 257°
2026-04-25 07:15 33.03071 -124.74573 28097 ft 444 kts 256°
2026-04-25 07:15 33.01823 -124.81781 28081 ft 444 kts 256°
2026-04-25 07:16 33.00576 -124.88940 28086 ft 444 kts 256°
2026-04-25 07:16 32.99317 -124.96142 28084 ft 444 kts 256°
2026-04-25 07:17 32.98054 -125.03342 28087 ft 443 kts 256°
2026-04-25 07:17 32.96787 -125.10536 28086 ft 443 kts 256°
2026-04-25 07:18 32.95518 -125.17720 28083 ft 443 kts 256°
2026-04-25 07:18 32.94246 -125.24894 28094 ft 443 kts 256°
2026-04-25 07:19 32.92970 -125.32069 28088 ft 443 kts 256°
2026-04-25 07:19 32.91697 -125.39201 28093 ft 443 kts 256°
2026-04-25 07:20 32.90410 -125.46381 28094 ft 443 kts 256°
2026-04-25 07:20 32.89119 -125.53562 28101 ft 443 kts 256°
2026-04-25 07:21 32.87835 -125.60679 28091 ft 442 kts 256°
2026-04-25 07:21 32.86537 -125.67852 28092 ft 441 kts 256°
2026-04-25 07:22 32.85242 -125.74981 28096 ft 441 kts 256°
2026-04-25 07:22 32.83953 -125.82054 28098 ft 440 kts 255°
2026-04-25 07:23 32.82650 -125.89180 28095 ft 440 kts 255°
2026-04-25 07:23 32.81344 -125.96299 28095 ft 440 kts 255°
2026-04-25 07:24 32.80035 -126.03408 28095 ft 440 kts 255°
2026-04-25 07:24 32.78729 -126.10476 28096 ft 440 kts 255°
2026-04-25 07:25 32.77409 -126.17596 28099 ft 440 kts 255°
2026-04-25 07:25 32.76086 -126.24713 28101 ft 440 kts 255°
2026-04-25 07:26 32.74769 -126.31768 28102 ft 440 kts 255°
2026-04-25 07:26 32.73440 -126.38867 28100 ft 439 kts 255°
2026-04-25 07:27 32.72108 -126.45960 28106 ft 439 kts 255°
2026-04-25 07:27 32.70775 -126.53035 28113 ft 439 kts 255°
2026-04-25 07:28 32.69447 -126.60060 28102 ft 438 kts 255°
2026-04-25 07:28 32.68106 -126.67128 28109 ft 438 kts 255°
2026-04-25 07:29 32.66765 -126.74178 28106 ft 437 kts 254°
2026-04-25 07:29 32.65432 -126.81161 28107 ft 435 kts 254°
2026-04-25 07:30 32.64093 -126.88154 28104 ft 433 kts 254°
2026-04-25 07:30 32.62758 -126.95100 28105 ft 431 kts 254°
2026-04-25 07:31 32.61423 -127.02029 28118 ft 430 kts 253°
2026-04-25 07:31 32.60086 -127.08944 28106 ft 429 kts 253°
2026-04-25 07:32 32.58755 -127.15802 28106 ft 429 kts 253°
2026-04-25 07:32 32.57415 -127.22690 28107 ft 428 kts 253°
2026-04-25 07:33 32.56070 -127.29581 28113 ft 429 kts 253°
2026-04-25 07:33 32.54718 -127.36490 28107 ft 429 kts 253°
2026-04-25 07:34 32.53372 -127.43340 28109 ft 429 kts 253°
2026-04-25 07:34 32.52013 -127.50242 28112 ft 430 kts 253°
2026-04-25 07:35 32.50648 -127.57151 28110 ft 430 kts 253°
2026-04-25 07:35 32.49285 -127.64030 28112 ft 431 kts 252°
2026-04-25 07:36 32.47910 -127.70948 28111 ft 431 kts 252°
2026-04-25 07:36 32.46762 -127.76708 28122 ft 431 kts 252°
2026-04-25 07:37 32.45159 -127.84725 28110 ft 430 kts 252°
2026-04-25 07:37 32.44011 -127.90452 28109 ft 429 kts 252°
2026-04-25 07:38 32.42629 -127.97324 28131 ft 428 kts 252°
2026-04-25 07:38 32.41246 -128.04182 28108 ft 428 kts 252°
2026-04-25 07:39 32.39859 -128.11037 28114 ft 427 kts 252°
2026-04-25 07:39 32.38481 -128.17824 28119 ft 427 kts 252°
2026-04-25 07:40 32.37093 -128.24645 28122 ft 425 kts 252°
2026-04-25 07:40 32.35706 -128.31446 28115 ft 424 kts 252°
2026-04-25 07:41 32.34319 -128.38221 28123 ft 423 kts 252°
2026-04-25 07:41 32.32932 -128.44975 28115 ft 423 kts 252°
2026-04-25 07:42 32.31549 -128.51691 28120 ft 423 kts 252°
2026-04-25 07:42 32.30152 -128.58456 28120 ft 423 kts 252°
2026-04-25 07:43 32.28751 -128.65219 28128 ft 423 kts 252°
2026-04-25 07:43 32.27346 -128.71985 28126 ft 424 kts 252°
2026-04-25 07:44 32.25944 -128.78714 28118 ft 424 kts 252°
2026-04-25 07:44 32.24535 -128.85463 28122 ft 423 kts 252°
2026-04-25 07:45 32.23121 -128.92215 28133 ft 423 kts 252°
2026-04-25 07:45 32.21706 -128.98948 28120 ft 422 kts 252°
2026-04-25 07:46 32.20291 -129.05668 28128 ft 421 kts 252°
2026-04-25 07:46 32.18881 -129.12343 28136 ft 420 kts 252°
2026-04-25 07:47 32.17461 -129.19044 28125 ft 420 kts 252°
2026-04-25 07:47 32.16034 -129.25761 28114 ft 421 kts 252°
2026-04-25 07:48 32.14607 -129.32459 28126 ft 421 kts 252°
2026-04-25 07:48 32.13175 -129.39163 28127 ft 422 kts 252°
2026-04-25 07:49 32.11736 -129.45877 28132 ft 423 kts 252°
2026-04-25 07:49 32.10290 -129.52613 28149 ft 424 kts 252°
2026-04-25 07:50 32.08837 -129.59354 28137 ft 429 kts 252°
2026-04-25 07:50 32.07351 -129.66228 28137 ft 435 kts 252°
2026-04-25 07:51 32.05844 -129.73185 28140 ft 440 kts 252°
2026-04-25 07:51 32.04327 -129.80179 28130 ft 441 kts 252°
2026-04-25 07:52 32.02800 -129.87188 28122 ft 441 kts 253°
2026-04-25 07:52 32.01275 -129.94178 28129 ft 440 kts 253°
2026-04-25 07:53 31.99612 -130.01069 28122 ft 438 kts 248°
2026-04-25 07:53 31.97171 -130.07641 28133 ft 438 kts 244°
2026-04-25 07:54 31.94704 -130.14169 28133 ft 439 kts 245°
2026-04-25 07:54 31.92229 -130.20769 28132 ft 441 kts 245°
2026-04-25 07:55 31.89752 -130.27375 28132 ft 441 kts 245°
2026-04-25 07:55 31.87268 -130.33987 28127 ft 441 kts 245°
2026-04-25 07:56 31.84781 -130.40596 28127 ft 441 kts 245°
2026-04-25 07:56 31.82295 -130.47184 28128 ft 441 kts 245°
2026-04-25 07:57 31.79806 -130.53769 28127 ft 440 kts 245°
2026-04-25 07:57 31.77327 -130.60316 28133 ft 440 kts 245°
2026-04-25 07:58 31.74832 -130.66891 28130 ft 440 kts 245°
2026-04-25 07:58 31.72336 -130.73458 28131 ft 440 kts 245°
2026-04-25 07:59 31.69832 -130.80031 28132 ft 440 kts 245°
2026-04-25 07:59 31.67327 -130.86596 28133 ft 440 kts 245°
2026-04-25 08:00 31.64833 -130.93120 28134 ft 440 kts 245°
2026-04-25 08:00 31.62323 -130.99674 28132 ft 439 kts 245°
2026-04-25 08:01 31.59812 -131.06217 28131 ft 439 kts 245°
2026-04-25 08:01 31.57305 -131.12741 28132 ft 438 kts 245°
2026-04-25 08:02 31.54814 -131.19208 28134 ft 437 kts 245°
2026-04-25 08:02 31.52309 -131.25699 28132 ft 436 kts 245°
2026-04-25 08:03 31.49806 -131.32175 28128 ft 435 kts 245°
2026-04-25 08:03 31.47301 -131.38641 28139 ft 435 kts 245°
2026-04-25 08:04 31.44804 -131.45079 28126 ft 434 kts 245°
2026-04-25 08:04 31.42321 -131.51465 28128 ft 433 kts 245°
2026-04-25 08:05 31.39821 -131.57885 28126 ft 433 kts 245°
2026-04-25 08:05 31.37315 -131.64310 28128 ft 433 kts 245°
2026-04-25 08:06 31.34806 -131.70729 28131 ft 434 kts 245°
2026-04-25 08:06 31.32303 -131.77123 28132 ft 435 kts 245°
2026-04-25 08:07 31.29776 -131.83565 28134 ft 435 kts 245°
2026-04-25 08:07 31.27241 -131.90017 28130 ft 436 kts 245°
2026-04-25 08:08 31.24720 -131.96421 28129 ft 436 kts 245°
2026-04-25 08:08 31.22184 -132.02850 28134 ft 436 kts 246°
2026-04-25 08:09 31.19642 -132.09287 28133 ft 436 kts 246°
2026-04-25 08:09 31.17098 -132.15715 28133 ft 435 kts 246°
2026-04-25 08:10 31.14552 -132.22136 28127 ft 435 kts 246°
2026-04-25 08:10 31.12022 -132.28507 28137 ft 435 kts 246°
2026-04-25 08:11 31.09475 -132.34908 28135 ft 434 kts 246°
2026-04-25 08:11 31.06926 -132.41304 28123 ft 434 kts 246°
2026-04-25 08:12 31.04375 -132.47691 28140 ft 434 kts 246°
2026-04-25 08:12 31.01842 -132.54024 28139 ft 434 kts 246°
2026-04-25 08:13 30.99283 -132.60409 28140 ft 434 kts 246°
2026-04-25 08:14 30.95443 -132.69970 28143 ft 434 kts 247°
2026-04-25 08:14 30.92878 -132.76345 28140 ft 434 kts 247°
2026-04-25 08:15 30.90308 -132.82718 28142 ft 434 kts 247°
2026-04-25 08:15 30.87750 -132.89052 28141 ft 434 kts 247°
2026-04-25 08:16 30.85174 -132.95418 28142 ft 434 kts 247°
2026-04-25 08:16 30.82595 -133.01781 28145 ft 434 kts 247°
2026-04-25 08:17 30.80016 -133.08132 28143 ft 434 kts 248°
2026-04-25 08:17 30.77431 -133.14488 28147 ft 434 kts 248°
2026-04-25 08:18 30.74843 -133.20840 28136 ft 434 kts 248°
2026-04-25 08:18 30.72273 -133.27136 28134 ft 434 kts 248°
2026-04-25 08:19 30.69671 -133.33502 28146 ft 435 kts 248°
2026-04-25 08:19 30.67069 -133.39857 28148 ft 436 kts 248°
2026-04-25 08:20 30.64477 -133.46175 28137 ft 436 kts 249°
2026-04-25 08:20 30.61864 -133.52533 28150 ft 436 kts 248°
2026-04-25 08:21 30.59248 -133.58886 28154 ft 436 kts 248°
2026-04-25 08:21 30.56631 -133.65232 28138 ft 436 kts 249°
2026-04-25 08:22 30.54009 -133.71581 28146 ft 436 kts 249°
2026-04-25 08:22 30.51382 -133.77931 28155 ft 437 kts 249°
2026-04-25 08:23 30.48763 -133.84251 28117 ft 438 kts 249°
2026-04-25 08:23 30.46113 -133.90631 28138 ft 438 kts 249°
2026-04-25 08:24 30.43466 -133.96997 28155 ft 439 kts 249°
2026-04-25 08:24 30.40816 -134.03358 28137 ft 440 kts 249°
2026-04-25 08:25 30.38150 -134.09744 28150 ft 440 kts 250°
2026-04-25 08:25 30.35925 -134.15067 28157 ft 441 kts 249°
2026-04-25 08:26 30.33248 -134.21463 28158 ft 441 kts 249°
2026-04-25 08:26 30.30565 -134.27861 28154 ft 441 kts 249°
2026-04-25 08:27 30.27875 -134.34264 28160 ft 442 kts 249°
2026-04-25 08:27 30.25179 -134.40671 28160 ft 443 kts 249°
2026-04-25 08:28 30.22493 -134.47044 28154 ft 443 kts 249°
2026-04-25 08:28 30.19785 -134.53457 28160 ft 444 kts 249°
2026-04-25 08:29 30.17067 -134.59886 28156 ft 445 kts 249°
2026-04-25 08:29 30.14344 -134.66313 28154 ft 445 kts 248°
2026-04-25 08:30 30.11620 -134.72732 28165 ft 445 kts 248°
2026-04-25 08:30 30.08910 -134.79108 28163 ft 445 kts 248°
2026-04-25 08:31 30.06179 -134.85523 28161 ft 445 kts 248°
2026-04-25 08:31 30.03448 -134.91928 28161 ft 445 kts 248°
2026-04-25 08:32 30.00466 -134.98209 28150 ft 450 kts 240°
2026-04-25 08:32 29.96554 -135.03880 28151 ft 456 kts 232°
2026-04-25 08:33 29.91982 -135.08990 28156 ft 458 kts 229°
2026-04-25 08:33 29.87360 -135.14050 28163 ft 458 kts 229°
2026-04-25 08:34 29.82750 -135.19120 28160 ft 457 kts 229°
2026-04-25 08:34 29.78174 -135.24172 28155 ft 458 kts 230°
2026-04-25 08:35 29.73560 -135.29269 28158 ft 460 kts 230°
2026-04-25 08:35 29.68932 -135.34375 28156 ft 461 kts 230°
2026-04-25 08:36 29.64303 -135.39473 28156 ft 461 kts 230°
2026-04-25 08:36 29.59686 -135.44551 28160 ft 462 kts 230°
2026-04-25 08:37 29.55031 -135.49664 28158 ft 463 kts 230°
2026-04-25 08:37 29.50367 -135.54779 28143 ft 463 kts 230°
2026-04-25 08:38 29.45712 -135.59879 28157 ft 463 kts 230°
2026-04-25 08:38 29.41071 -135.64956 28165 ft 464 kts 230°
2026-04-25 08:39 29.36396 -135.70064 28136 ft 464 kts 230°
2026-04-25 08:39 29.31718 -135.75168 28156 ft 464 kts 230°
2026-04-25 08:40 29.27038 -135.80266 28157 ft 464 kts 230°
2026-04-25 08:40 29.22347 -135.85371 28136 ft 464 kts 230°
2026-04-25 08:41 29.17666 -135.90458 28155 ft 464 kts 230°
2026-04-25 08:41 29.12994 -135.95529 28161 ft 464 kts 230°
2026-04-25 08:42 29.08303 -136.00613 28135 ft 465 kts 230°
2026-04-25 08:42 29.03602 -136.05702 28163 ft 466 kts 230°
2026-04-25 08:43 28.98893 -136.10793 28156 ft 466 kts 230°
2026-04-25 08:43 28.94206 -136.15852 28160 ft 466 kts 230°
2026-04-25 08:44 28.89483 -136.20944 28152 ft 467 kts 230°
2026-04-25 08:44 28.84749 -136.26043 28162 ft 468 kts 230°
2026-04-25 08:45 28.80004 -136.31145 28158 ft 469 kts 230°
2026-04-25 08:45 28.75247 -136.36254 28155 ft 470 kts 230°
2026-04-25 08:46 28.70500 -136.41345 28156 ft 472 kts 230°
2026-04-25 08:46 28.65709 -136.46477 28158 ft 473 kts 230°
2026-04-25 08:47 28.60899 -136.51623 28158 ft 474 kts 230°
2026-04-25 08:47 28.56085 -136.56764 28159 ft 475 kts 230°
2026-04-25 08:48 28.51259 -136.61913 28158 ft 476 kts 230°
2026-04-25 08:48 28.46444 -136.67043 28147 ft 477 kts 230°
2026-04-25 08:49 28.41602 -136.72195 28158 ft 477 kts 230°
2026-04-25 08:49 28.36778 -136.77321 28154 ft 477 kts 230°
2026-04-25 08:50 28.31927 -136.82469 28155 ft 477 kts 230°
2026-04-25 08:50 28.27080 -136.87605 28155 ft 477 kts 230°
2026-04-25 08:51 28.22229 -136.92740 28155 ft 476 kts 230°
2026-04-25 08:51 28.17378 -136.97868 28130 ft 476 kts 230°
2026-04-25 08:52 28.12529 -137.02988 28148 ft 477 kts 230°
2026-04-25 08:52 28.07691 -137.08090 28153 ft 478 kts 230°
2026-04-25 08:53 28.02814 -137.13227 28127 ft 479 kts 229°
2026-04-25 08:53 27.97922 -137.18370 28151 ft 480 kts 229°
2026-04-25 08:54 27.93028 -137.23509 28157 ft 480 kts 229°
2026-04-25 08:54 27.88132 -137.28645 28155 ft 480 kts 229°
2026-04-25 08:55 27.83238 -137.33771 28144 ft 479 kts 229°
2026-04-25 08:55 27.78377 -137.38857 28147 ft 479 kts 229°
2026-04-25 08:56 27.73481 -137.43972 28150 ft 479 kts 229°
2026-04-25 08:56 27.68593 -137.49074 28149 ft 478 kts 229°
2026-04-25 08:57 27.63697 -137.54177 28151 ft 478 kts 229°
2026-04-25 08:57 27.58831 -137.59242 28148 ft 478 kts 229°
2026-04-25 08:58 27.53930 -137.64337 28149 ft 477 kts 228°
2026-04-25 08:58 27.49080 -137.69373 28141 ft 477 kts 228°
2026-04-25 08:59 27.44188 -137.74445 28152 ft 477 kts 228°
2026-04-25 08:59 27.39304 -137.79504 28131 ft 477 kts 228°
2026-04-25 09:00 27.34419 -137.84557 28151 ft 476 kts 228°
2026-04-25 09:00 27.29568 -137.89568 28152 ft 476 kts 228°
2026-04-25 09:01 27.24677 -137.94615 28152 ft 476 kts 228°
2026-04-25 09:01 27.19787 -137.99654 28145 ft 476 kts 227°
2026-04-25 09:02 27.14893 -138.04693 28138 ft 477 kts 227°
2026-04-25 09:02 27.10028 -138.09695 28145 ft 478 kts 227°
2026-04-25 09:03 27.05117 -138.14739 28140 ft 478 kts 227°
2026-04-25 09:03 27.00228 -138.19795 28144 ft 477 kts 230°
2026-04-25 09:04 26.95990 -138.25425 28143 ft 470 kts 237°
2026-04-25 09:04 26.92006 -138.31263 28121 ft 472 kts 237°
2026-04-25 09:05 26.88012 -138.37056 28142 ft 472 kts 237°
2026-04-25 09:05 26.83971 -138.42877 28142 ft 472 kts 237°
2026-04-25 09:06 26.79931 -138.48679 28136 ft 472 kts 237°
2026-04-25 09:06 26.75905 -138.54454 28143 ft 473 kts 237°
2026-04-25 09:07 26.71850 -138.60265 28142 ft 474 kts 237°
2026-04-25 09:07 26.67788 -138.66079 28142 ft 475 kts 237°
2026-04-25 09:08 26.63712 -138.71906 28142 ft 476 kts 237°
2026-04-25 09:08 26.59627 -138.77737 28136 ft 476 kts 237°
2026-04-25 09:09 26.55549 -138.83550 28141 ft 475 kts 237°
2026-04-25 09:09 26.51475 -138.89351 28140 ft 474 kts 237°
2026-04-25 09:10 26.47426 -138.95108 28141 ft 473 kts 236°
2026-04-25 09:10 26.43359 -139.00885 28132 ft 473 kts 236°
2026-04-25 09:11 26.37257 -139.09539 28137 ft 473 kts 236°
2026-04-25 09:11 26.33175 -139.15318 28137 ft 474 kts 236°
2026-04-25 09:12 26.29088 -139.21098 28124 ft 475 kts 236°
2026-04-25 09:12 26.25008 -139.26859 28145 ft 477 kts 236°
2026-04-25 09:13 26.20886 -139.32673 28145 ft 478 kts 236°
2026-04-25 09:13 26.16755 -139.38491 28130 ft 478 kts 236°
2026-04-25 09:14 26.12654 -139.44260 28127 ft 478 kts 235°
2026-04-25 09:14 26.08519 -139.50070 28135 ft 478 kts 235°
2026-04-25 09:15 26.04383 -139.55873 28140 ft 479 kts 235°
2026-04-25 09:15 26.00936 -139.60705 28137 ft 479 kts 235°
2026-04-25 09:16 25.96791 -139.66508 28123 ft 479 kts 235°
2026-04-25 09:16 25.92644 -139.72306 28132 ft 480 kts 235°
2026-04-25 09:17 25.86407 -139.81012 28131 ft 480 kts 234°
2026-04-25 09:18 25.82245 -139.86813 28120 ft 480 kts 234°
2026-04-25 09:18 25.78105 -139.92576 28133 ft 480 kts 234°
2026-04-25 09:19 25.73924 -139.98390 28131 ft 481 kts 234°
2026-04-25 09:19 25.69771 -140.04156 28131 ft 481 kts 234°
2026-04-25 09:20 25.65596 -140.09947 28111 ft 480 kts 234°
2026-04-25 09:20 25.61418 -140.15733 28141 ft 480 kts 234°
2026-04-25 09:21 25.57247 -140.21504 28134 ft 479 kts 234°
2026-04-25 09:21 25.53101 -140.27232 28127 ft 479 kts 234°
2026-04-25 09:22 25.48922 -140.32999 28118 ft 479 kts 234°
2026-04-25 09:22 25.44748 -140.38752 28126 ft 479 kts 234°
2026-04-25 09:23 25.40577 -140.44494 28119 ft 479 kts 234°
2026-04-25 09:23 25.36399 -140.50239 28122 ft 479 kts 234°
2026-04-25 09:24 25.32250 -140.55937 28112 ft 478 kts 234°
2026-04-25 09:24 25.28071 -140.61669 28120 ft 478 kts 234°
2026-04-25 09:25 25.23891 -140.67395 28118 ft 478 kts 234°
2026-04-25 09:25 25.19732 -140.73087 28121 ft 478 kts 234°
2026-04-25 09:26 25.15539 -140.78817 28120 ft 478 kts 234°
2026-04-25 09:26 25.11354 -140.84531 28109 ft 478 kts 234°
2026-04-25 09:27 25.07157 -140.90254 28106 ft 478 kts 234°
2026-04-25 09:27 25.02995 -140.95923 28114 ft 478 kts 234°
2026-04-25 09:28 24.98664 -141.01529 28103 ft 481 kts 227°
2026-04-25 09:28 24.93807 -141.06612 28116 ft 482 kts 226°
2026-04-25 09:29 24.88930 -141.11679 28114 ft 482 kts 226°
2026-04-25 09:29 24.84093 -141.16739 28108 ft 482 kts 226°
2026-04-25 09:30 24.79236 -141.21838 28104 ft 482 kts 226°
2026-04-25 09:30 24.74390 -141.26927 28104 ft 482 kts 226°
2026-04-25 09:31 24.69533 -141.32020 28104 ft 482 kts 226°
2026-04-25 09:31 24.64676 -141.37106 28102 ft 482 kts 226°
2026-04-25 09:32 24.59854 -141.42149 28101 ft 482 kts 226°
2026-04-25 09:32 24.54987 -141.47234 28104 ft 482 kts 226°
2026-04-25 09:33 24.50120 -141.52311 28100 ft 482 kts 226°
2026-04-25 09:33 24.45261 -141.57376 28099 ft 482 kts 226°
2026-04-25 09:34 24.40418 -141.62418 28096 ft 482 kts 226°
2026-04-25 09:34 24.35551 -141.67480 28100 ft 482 kts 226°
2026-04-25 09:35 24.30680 -141.72541 28097 ft 482 kts 226°
2026-04-25 09:35 24.25842 -141.77561 28099 ft 482 kts 226°
2026-04-25 09:36 24.20964 -141.82617 28092 ft 481 kts 226°
2026-04-25 09:36 24.16089 -141.87664 28098 ft 482 kts 226°
2026-04-25 09:37 24.11212 -141.92708 28099 ft 482 kts 226°
2026-04-25 09:37 24.06366 -141.97715 28100 ft 482 kts 226°
2026-04-25 09:38 24.01478 -142.02759 28089 ft 482 kts 226°
2026-04-25 09:38 23.96590 -142.07798 28093 ft 482 kts 226°
2026-04-25 09:39 23.91736 -142.12797 28087 ft 482 kts 226°
2026-04-25 09:39 23.86852 -142.17820 28103 ft 482 kts 226°
2026-04-25 09:40 23.79512 -142.25360 28094 ft 482 kts 226°
2026-04-25 09:40 23.74621 -142.30378 28095 ft 482 kts 226°
2026-04-25 09:41 23.69754 -142.35364 28089 ft 483 kts 226°
2026-04-25 09:41 23.64860 -142.40374 28084 ft 483 kts 226°
2026-04-25 09:42 23.59952 -142.45392 28093 ft 483 kts 225°
2026-04-25 09:42 23.55041 -142.50408 28093 ft 483 kts 225°
2026-04-25 09:43 23.50126 -142.55423 28086 ft 483 kts 225°
2026-04-25 09:43 23.45231 -142.60413 28079 ft 484 kts 225°
2026-04-25 09:44 23.40312 -142.65421 28086 ft 484 kts 225°
2026-04-25 09:44 23.35387 -142.70429 28087 ft 484 kts 225°
2026-04-25 09:45 23.30492 -142.75403 28087 ft 484 kts 225°
2026-04-25 09:45 23.25557 -142.80411 28088 ft 485 kts 225°
2026-04-25 09:46 23.20612 -142.85424 28084 ft 484 kts 225°
2026-04-25 09:46 23.15709 -142.90389 28087 ft 484 kts 225°
2026-04-25 09:47 23.10773 -142.95383 28085 ft 484 kts 225°
2026-04-25 09:47 23.05844 -143.00365 28079 ft 484 kts 225°
2026-04-25 09:48 23.00910 -143.05345 28079 ft 484 kts 225°
2026-04-25 09:48 22.95968 -143.10329 28082 ft 484 kts 225°
2026-04-25 09:49 22.91026 -143.15308 28077 ft 485 kts 225°
2026-04-25 09:49 22.86105 -143.20260 28074 ft 485 kts 225°
2026-04-25 09:50 22.81164 -143.25228 28080 ft 484 kts 225°
2026-04-25 09:50 22.76216 -143.30197 28076 ft 484 kts 225°
2026-04-25 09:51 22.71266 -143.35163 28076 ft 485 kts 225°
2026-04-25 09:51 22.66317 -143.40123 28079 ft 485 kts 225°
2026-04-25 09:52 22.61371 -143.45075 28080 ft 484 kts 225°
2026-04-25 09:52 22.56420 -143.50027 28073 ft 484 kts 225°
2026-04-25 09:53 22.51498 -143.54944 28072 ft 483 kts 225°
2026-04-25 09:53 22.46561 -143.59872 28071 ft 483 kts 225°
2026-04-25 09:54 22.41616 -143.64803 28078 ft 483 kts 224°
2026-04-25 09:54 22.36683 -143.69716 28070 ft 482 kts 225°
2026-04-25 09:55 22.31750 -143.74626 28066 ft 482 kts 224°
2026-04-25 09:55 22.26817 -143.79530 28072 ft 482 kts 224°
2026-04-25 09:56 22.21909 -143.84404 28064 ft 482 kts 224°
2026-04-25 09:56 22.16970 -143.89304 28065 ft 482 kts 224°
2026-04-25 09:57 22.12027 -143.94202 28063 ft 482 kts 224°
2026-04-25 09:57 22.07091 -143.99090 28064 ft 482 kts 224°
2026-04-25 09:58 22.02178 -144.03950 28057 ft 482 kts 224°
2026-04-25 09:58 21.97231 -144.08838 28064 ft 482 kts 224°
2026-04-25 09:59 21.92290 -144.13717 28062 ft 482 kts 224°
2026-04-25 09:59 21.87343 -144.18595 28062 ft 482 kts 224°
2026-04-25 10:00 21.82434 -144.23432 28065 ft 481 kts 224°
2026-04-25 10:00 21.77492 -144.28297 28065 ft 481 kts 224°
2026-04-25 10:01 21.72545 -144.33161 28060 ft 481 kts 224°
2026-04-25 10:01 21.67600 -144.38019 28059 ft 481 kts 224°
2026-04-25 10:02 21.62655 -144.42872 28060 ft 481 kts 224°
2026-04-25 10:02 21.57746 -144.47685 28058 ft 481 kts 224°
2026-04-25 10:03 21.52798 -144.52533 28055 ft 480 kts 224°
2026-04-25 10:03 21.47849 -144.57376 28058 ft 481 kts 224°
2026-04-25 10:04 21.42903 -144.62211 28057 ft 481 kts 224°
2026-04-25 10:04 21.38791 -144.66228 28058 ft 481 kts 224°
2026-04-25 10:05 21.33860 -144.71040 28049 ft 481 kts 224°
2026-04-25 10:05 21.28903 -144.75873 28055 ft 481 kts 224°
2026-04-25 10:06 21.23140 -144.81486 28052 ft 481 kts 224°
2026-04-25 10:06 21.19016 -144.85500 28049 ft 482 kts 224°
2026-04-25 10:07 21.14047 -144.90330 28048 ft 482 kts 224°
2026-04-25 10:07 21.09082 -144.95153 28046 ft 482 kts 224°
2026-04-25 10:08 21.04113 -144.99975 28047 ft 482 kts 224°
2026-04-25 10:08 20.99135 -145.04801 28045 ft 482 kts 224°
2026-04-25 10:09 20.94188 -145.09593 28039 ft 482 kts 224°
2026-04-25 10:09 20.89205 -145.14414 28044 ft 482 kts 224°
2026-04-25 10:10 20.84224 -145.19231 28048 ft 482 kts 224°
2026-04-25 10:10 20.79243 -145.24042 28049 ft 482 kts 224°
2026-04-25 10:11 20.74291 -145.28821 28045 ft 482 kts 224°
2026-04-25 10:11 20.69301 -145.33632 28046 ft 482 kts 223°
2026-04-25 10:12 20.64341 -145.38409 28046 ft 482 kts 223°
2026-04-25 10:13 20.56869 -145.45598 28043 ft 482 kts 223°
2026-04-25 10:13 20.51884 -145.50388 28043 ft 481 kts 223°
2026-04-25 10:14 20.46903 -145.55171 28043 ft 481 kts 223°
2026-04-25 10:14 20.41926 -145.59945 28043 ft 481 kts 223°
2026-04-25 10:15 20.36975 -145.64690 28041 ft 481 kts 223°
2026-04-25 10:15 20.31990 -145.69464 28044 ft 481 kts 223°
2026-04-25 10:16 20.27011 -145.74228 28046 ft 481 kts 223°
2026-04-25 10:16 20.22037 -145.78981 28049 ft 478 kts 224°
2026-04-25 10:17 20.17129 -145.83668 28034 ft 475 kts 223°
2026-04-25 10:17 20.12215 -145.88358 28033 ft 474 kts 223°
2026-04-25 10:18 20.07299 -145.93046 28036 ft 474 kts 223°
2026-04-25 10:18 20.02378 -145.97734 28036 ft 474 kts 224°
2026-04-25 10:19 19.97339 -146.02275 28042 ft 474 kts 220°
2026-04-25 10:19 19.92155 -146.06552 28034 ft 474 kts 220°
2026-04-25 10:20 19.86943 -146.10836 28038 ft 473 kts 220°
2026-04-25 10:20 19.81740 -146.15130 28033 ft 473 kts 220°
2026-04-25 10:21 19.76542 -146.19429 28031 ft 472 kts 220°
2026-04-25 10:21 19.71365 -146.23711 28025 ft 470 kts 220°
2026-04-25 10:22 19.66240 -146.27946 28031 ft 469 kts 220°
2026-04-25 10:22 19.61083 -146.32204 28016 ft 469 kts 220°
2026-04-25 10:23 19.55932 -146.36452 28034 ft 469 kts 220°
2026-04-25 10:23 19.50776 -146.40702 28032 ft 469 kts 220°
2026-04-25 10:24 19.45610 -146.44955 28030 ft 469 kts 220°
2026-04-25 10:24 19.40487 -146.49169 28030 ft 469 kts 220°
2026-04-25 10:25 19.35330 -146.53409 28029 ft 469 kts 220°
2026-04-25 10:25 19.30176 -146.57642 28019 ft 469 kts 220°
2026-04-25 10:26 19.25022 -146.61872 28026 ft 468 kts 220°
2026-04-25 10:26 19.19867 -146.66099 28027 ft 468 kts 220°
2026-04-25 10:27 19.14713 -146.70322 28027 ft 468 kts 220°
2026-04-25 10:27 19.09590 -146.74516 28027 ft 468 kts 220°
2026-04-25 10:28 19.04436 -146.78733 28029 ft 468 kts 220°
2026-04-25 10:28 18.99285 -146.82943 28026 ft 467 kts 220°
2026-04-25 10:29 18.94139 -146.87146 28026 ft 467 kts 220°
2026-04-25 10:29 18.89027 -146.91318 28028 ft 467 kts 220°
2026-04-25 10:30 18.83878 -146.95516 28025 ft 467 kts 220°
2026-04-25 10:30 18.78724 -146.99715 28025 ft 468 kts 220°
2026-04-25 10:31 18.73563 -147.03917 28022 ft 468 kts 220°
2026-04-25 10:31 18.68415 -147.08105 28022 ft 468 kts 220°
2026-04-25 10:32 18.63252 -147.12301 28024 ft 468 kts 220°
2026-04-25 10:32 18.58127 -147.16464 28018 ft 468 kts 220°
2026-04-25 10:33 18.52968 -147.20651 28020 ft 467 kts 220°
2026-04-25 10:33 18.47828 -147.24818 28015 ft 465 kts 220°
2026-04-25 10:34 18.42711 -147.28964 28016 ft 463 kts 220°
2026-04-25 10:34 18.37601 -147.33102 28016 ft 463 kts 220°
2026-04-25 10:35 18.32490 -147.37237 28012 ft 463 kts 220°
2026-04-25 10:35 18.27381 -147.41368 28018 ft 463 kts 220°
2026-04-25 10:36 18.22301 -147.45472 28016 ft 463 kts 220°
2026-04-25 10:36 18.17186 -147.49600 28014 ft 463 kts 220°
2026-04-25 10:37 18.12066 -147.53730 28016 ft 463 kts 220°
2026-04-25 10:37 18.06942 -147.57860 28005 ft 463 kts 219°
2026-04-25 10:38 18.01824 -147.61982 28012 ft 464 kts 219°
2026-04-25 10:38 17.96737 -147.66075 28018 ft 464 kts 219°
2026-04-25 10:39 17.91603 -147.70204 28012 ft 464 kts 219°
2026-04-25 10:39 17.86467 -147.74331 28014 ft 464 kts 219°
2026-04-25 10:40 17.81371 -147.78423 28006 ft 464 kts 219°
2026-04-25 10:40 17.76248 -147.82533 28010 ft 464 kts 219°
2026-04-25 10:41 17.71122 -147.86643 28009 ft 464 kts 219°
2026-04-25 10:41 17.65985 -147.90759 28009 ft 464 kts 219°
2026-04-25 10:42 17.60848 -147.94872 28013 ft 464 kts 219°
2026-04-25 10:42 17.55710 -147.98982 28001 ft 464 kts 219°
2026-04-25 10:43 17.50607 -148.03062 28008 ft 464 kts 219°
2026-04-25 10:43 17.45461 -148.07172 28007 ft 464 kts 219°
2026-04-25 10:44 17.40320 -148.11277 28008 ft 464 kts 219°
2026-04-25 10:44 17.35176 -148.15379 28008 ft 464 kts 219°
2026-04-25 10:45 17.30062 -148.19456 28000 ft 464 kts 219°
2026-04-25 10:45 17.24917 -148.23555 28007 ft 464 kts 219°
2026-04-25 10:46 17.19764 -148.27656 28004 ft 464 kts 219°
2026-04-25 10:46 17.14649 -148.31724 28005 ft 464 kts 219°
2026-04-25 10:47 17.09505 -148.35813 28006 ft 464 kts 219°
2026-04-25 10:47 17.04357 -148.39901 27997 ft 464 kts 219°
2026-04-25 10:47 17.01784 -148.41944 27999 ft 464 kts 219°
2026-04-25 10:48 16.99206 -148.43990 28002 ft 464 kts 219°
2026-04-25 10:48 16.94055 -148.48076 28009 ft 464 kts 219°
2026-04-25 10:49 16.88909 -148.52155 28006 ft 465 kts 219°
2026-04-25 10:49 16.83783 -148.56214 28006 ft 464 kts 219°
2026-04-25 10:50 16.78632 -148.60291 28004 ft 464 kts 219°
2026-04-25 10:50 16.76052 -148.62331 27995 ft 464 kts 219°
2026-04-25 10:50 16.73474 -148.64370 28001 ft 464 kts 219°
2026-04-25 10:51 16.68348 -148.68422 28004 ft 464 kts 219°
2026-04-25 10:51 16.63191 -148.72495 28003 ft 464 kts 219°
2026-04-25 10:51 16.60609 -148.74533 27999 ft 464 kts 219°
2026-04-25 10:52 16.58025 -148.76573 28001 ft 465 kts 219°
2026-04-25 10:52 16.55444 -148.78609 27999 ft 465 kts 219°
2026-04-25 10:52 16.52900 -148.80614 28000 ft 465 kts 219°
2026-04-25 10:52 16.50323 -148.82646 27992 ft 465 kts 219°
2026-04-25 10:53 16.47741 -148.84681 28005 ft 464 kts 219°
2026-04-25 10:53 16.45165 -148.86710 27991 ft 465 kts 219°
2026-04-25 10:53 16.42579 -148.88747 27994 ft 464 kts 219°
2026-04-25 10:54 16.37422 -148.92806 27990 ft 464 kts 219°
2026-04-25 10:54 16.35709 -148.94154 27993 ft 464 kts 219°
2026-04-25 10:54 16.32259 -148.96867 27989 ft 464 kts 219°
2026-04-25 10:54 16.30554 -148.98208 27991 ft 464 kts 219°
2026-04-25 10:55 16.27137 -149.00893 27991 ft 464 kts 219°
2026-04-25 10:55 16.24545 -149.02929 27993 ft 464 kts 219°
2026-04-25 10:55 16.22840 -149.04269 27993 ft 464 kts 219°
2026-04-25 10:55 16.19390 -149.06978 27990 ft 464 kts 219°
2026-04-25 10:56 16.17677 -149.08323 27992 ft 464 kts 219°
2026-04-25 10:56 16.12524 -149.12365 27990 ft 464 kts 219°
2026-04-25 10:56 16.09945 -149.14387 27992 ft 464 kts 219°
2026-04-25 10:57 16.07358 -149.16416 28003 ft 464 kts 219°
2026-04-25 10:57 16.04810 -149.18412 27988 ft 464 kts 219°
2026-04-25 10:57 16.02229 -149.20434 27992 ft 464 kts 219°
2026-04-25 10:58 15.97063 -149.24479 27979 ft 464 kts 219°
2026-04-25 10:58 15.91902 -149.28517 28000 ft 464 kts 219°
2026-04-25 10:58 15.89315 -149.30541 27983 ft 464 kts 219°
2026-04-25 10:59 15.86735 -149.32557 28004 ft 464 kts 219°
2026-04-25 10:59 15.84152 -149.34577 27985 ft 464 kts 219°
2026-04-25 10:59 15.81575 -149.36590 27999 ft 464 kts 219°
2026-04-25 10:59 15.79023 -149.38583 27997 ft 464 kts 219°
2026-04-25 11:00 15.76442 -149.40599 27984 ft 464 kts 219°
2026-04-25 11:00 15.71271 -149.44634 27985 ft 464 kts 219°
2026-04-25 11:00 15.68695 -149.46644 27998 ft 464 kts 219°
2026-04-25 11:01 15.66113 -149.48657 28004 ft 464 kts 219°
2026-04-25 11:01 15.63535 -149.50667 27995 ft 464 kts 219°
2026-04-25 11:01 15.60951 -149.52680 27993 ft 464 kts 219°
2026-04-25 11:01 15.58368 -149.54693 27985 ft 464 kts 219°
2026-04-25 11:02 15.55787 -149.56703 27990 ft 464 kts 219°
2026-04-25 11:02 15.53204 -149.58714 27978 ft 464 kts 219°
2026-04-25 11:02 15.50655 -149.60698 27982 ft 464 kts 219°
2026-04-25 11:02 15.48070 -149.62709 27982 ft 464 kts 219°
2026-04-25 11:03 15.45484 -149.64721 27987 ft 464 kts 219°
2026-04-25 11:03 15.42906 -149.66725 27980 ft 464 kts 219°
2026-04-25 11:03 15.40315 -149.68739 27971 ft 464 kts 219°
2026-04-25 11:03 15.37737 -149.70742 27983 ft 464 kts 219°
2026-04-25 11:04 15.35148 -149.72754 27974 ft 464 kts 219°
2026-04-25 11:04 15.32566 -149.74759 27976 ft 464 kts 219°
2026-04-25 11:04 15.30011 -149.76742 27970 ft 464 kts 219°
2026-04-25 11:04 15.28259 -149.78102 27980 ft 464 kts 219°
2026-04-25 11:05 15.24836 -149.80759 27978 ft 464 kts 219°
2026-04-25 11:05 15.22251 -149.82763 27986 ft 464 kts 219°
2026-04-25 11:05 15.19664 -149.84769 27981 ft 464 kts 219°
2026-04-25 11:05 15.17075 -149.86776 27984 ft 464 kts 219°
2026-04-25 11:06 15.14485 -149.88783 27977 ft 464 kts 219°
2026-04-25 11:06 15.11897 -149.90788 27975 ft 464 kts 219°
2026-04-25 11:06 15.09312 -149.92790 27976 ft 464 kts 219°
2026-04-25 11:06 15.06726 -149.94793 27977 ft 464 kts 219°
2026-04-25 11:07 15.04143 -149.96793 27979 ft 464 kts 219°
2026-04-25 11:07 15.01554 -149.98796 27969 ft 464 kts 219°
2026-04-25 11:07 14.98976 -150.00799 27980 ft 464 kts 219°
2026-04-25 11:07 14.96429 -150.02848 27976 ft 464 kts 220°
2026-04-25 11:08 14.93903 -150.04926 27976 ft 463 kts 221°
2026-04-25 11:08 14.91387 -150.07012 27973 ft 463 kts 221°
2026-04-25 11:08 14.88902 -150.09073 27970 ft 463 kts 221°
2026-04-25 11:08 14.86381 -150.11159 27959 ft 463 kts 220°
2026-04-25 11:09 14.83863 -150.13236 27975 ft 463 kts 220°
2026-04-25 11:09 14.81338 -150.15312 27974 ft 463 kts 220°
2026-04-25 11:09 14.78808 -150.17389 27973 ft 464 kts 220°
2026-04-25 11:09 14.76281 -150.19460 27973 ft 464 kts 220°
2026-04-25 11:10 14.73748 -150.21535 27965 ft 464 kts 220°
2026-04-25 11:10 14.72065 -150.22913 27968 ft 464 kts 220°
2026-04-25 11:10 14.68681 -150.25684 27965 ft 464 kts 220°
2026-04-25 11:10 14.66149 -150.27756 27966 ft 464 kts 220°
2026-04-25 11:11 14.63615 -150.29830 27969 ft 464 kts 220°
2026-04-25 11:11 14.61114 -150.31876 27968 ft 464 kts 220°
2026-04-25 11:11 14.58578 -150.33950 27960 ft 464 kts 220°
2026-04-25 11:11 14.56046 -150.36020 27962 ft 464 kts 220°
2026-04-25 11:12 14.53514 -150.38090 27966 ft 464 kts 220°
2026-04-25 11:12 14.50983 -150.40157 27968 ft 464 kts 220°
2026-04-25 11:12 14.48450 -150.42227 27968 ft 464 kts 220°
2026-04-25 11:12 14.45920 -150.44293 27970 ft 464 kts 220°
2026-04-25 11:13 14.43385 -150.46362 27968 ft 464 kts 220°
2026-04-25 11:13 14.40855 -150.48428 27964 ft 464 kts 220°
2026-04-25 11:13 14.38319 -150.50496 27966 ft 464 kts 220°
2026-04-25 11:13 14.35780 -150.52568 27970 ft 464 kts 220°
2026-04-25 11:14 14.33244 -150.54636 27962 ft 465 kts 220°
2026-04-25 11:14 14.30706 -150.56705 27954 ft 465 kts 220°
2026-04-25 11:14 14.28199 -150.58748 27960 ft 465 kts 220°
2026-04-25 11:14 14.25661 -150.60815 27965 ft 465 kts 220°
2026-04-25 11:15 14.23118 -150.62886 27960 ft 465 kts 220°
2026-04-25 11:15 14.20579 -150.64954 27962 ft 465 kts 220°
2026-04-25 11:15 14.18038 -150.67022 27967 ft 465 kts 220°
2026-04-25 11:15 14.15495 -150.69092 27960 ft 465 kts 220°
2026-04-25 11:16 14.10415 -150.73223 27963 ft 465 kts 220°
2026-04-25 11:16 14.07874 -150.75290 27957 ft 465 kts 220°
2026-04-25 11:16 14.05326 -150.77360 27955 ft 465 kts 220°
2026-04-25 11:17 14.02784 -150.79426 27954 ft 465 kts 220°
2026-04-25 11:17 14.00241 -150.81492 27954 ft 465 kts 220°
2026-04-25 11:17 13.97694 -150.83561 27957 ft 465 kts 220°
2026-04-25 11:17 13.95185 -150.85598 27956 ft 466 kts 220°
2026-04-25 11:18 13.92641 -150.87662 27958 ft 466 kts 220°
2026-04-25 11:18 13.90095 -150.89728 27957 ft 466 kts 220°
2026-04-25 11:18 13.87550 -150.91792 27959 ft 466 kts 220°
2026-04-25 11:18 13.85002 -150.93859 27958 ft 466 kts 220°
2026-04-25 11:19 13.82454 -150.95924 27957 ft 466 kts 220°
2026-04-25 11:19 13.79901 -150.97993 27957 ft 466 kts 220°
2026-04-25 11:19 13.77350 -151.00060 27955 ft 466 kts 220°
2026-04-25 11:19 13.74800 -151.02125 27941 ft 466 kts 220°
2026-04-25 11:20 13.72255 -151.04187 27947 ft 466 kts 220°
2026-04-25 11:20 13.69740 -151.06222 27958 ft 466 kts 220°
2026-04-25 11:20 13.67189 -151.08286 27956 ft 466 kts 220°
2026-04-25 11:20 13.64633 -151.10355 27953 ft 466 kts 220°
2026-04-25 11:21 13.62075 -151.12424 27950 ft 467 kts 220°
2026-04-25 11:21 13.59525 -151.14486 27954 ft 467 kts 220°
2026-04-25 11:21 13.56973 -151.16549 27955 ft 467 kts 220°
2026-04-25 11:21 13.54414 -151.18617 27953 ft 467 kts 220°
2026-04-25 11:22 13.51892 -151.20655 27953 ft 467 kts 220°
2026-04-25 11:22 13.50160 -151.22054 27955 ft 467 kts 220°
2026-04-25 11:22 13.46771 -151.24790 27953 ft 467 kts 220°
2026-04-25 11:22 13.44220 -151.26849 27954 ft 467 kts 220°
2026-04-25 11:23 13.41666 -151.28911 27951 ft 467 kts 220°
2026-04-25 11:23 13.39111 -151.30972 27950 ft 467 kts 220°
2026-04-25 11:23 13.36560 -151.33029 27950 ft 466 kts 220°
2026-04-25 11:23 13.34006 -151.35089 27952 ft 466 kts 220°
2026-04-25 11:24 13.31488 -151.37119 27946 ft 466 kts 220°
2026-04-25 11:24 13.28931 -151.39180 27948 ft 466 kts 220°
2026-04-25 11:24 13.26369 -151.41244 27948 ft 466 kts 220°
2026-04-25 11:24 13.23813 -151.43302 27948 ft 466 kts 220°
2026-04-25 11:25 13.21248 -151.45368 27951 ft 466 kts 220°
2026-04-25 11:25 13.18697 -151.47422 27946 ft 466 kts 220°
2026-04-25 11:25 13.16143 -151.49478 27940 ft 467 kts 220°
2026-04-25 11:25 13.13619 -151.51508 27947 ft 467 kts 220°
2026-04-25 11:26 13.11060 -151.53567 27950 ft 467 kts 220°
2026-04-25 11:26 13.08497 -151.55628 27948 ft 467 kts 220°
2026-04-25 11:26 13.05932 -151.57690 27945 ft 468 kts 220°
2026-04-25 11:26 13.03372 -151.59748 27945 ft 468 kts 220°
2026-04-25 11:27 13.00804 -151.61811 27946 ft 468 kts 220°
2026-04-25 11:27 12.98238 -151.63872 27944 ft 468 kts 220°
2026-04-25 11:27 12.95672 -151.65932 27945 ft 468 kts 220°
2026-04-25 11:27 12.93976 -151.67295 27942 ft 468 kts 220°
2026-04-25 11:28 12.90547 -151.70047 27942 ft 468 kts 220°
2026-04-25 11:28 12.87983 -151.72104 27932 ft 468 kts 220°
2026-04-25 11:28 12.85450 -151.74136 27936 ft 468 kts 220°
2026-04-25 11:28 12.82879 -151.76198 27943 ft 468 kts 220°
2026-04-25 11:29 12.80314 -151.78255 27949 ft 468 kts 220°
2026-04-25 11:29 12.77745 -151.80314 27944 ft 469 kts 220°
2026-04-25 11:29 12.75173 -151.82375 27944 ft 469 kts 220°
2026-04-25 11:29 12.72597 -151.84439 27943 ft 469 kts 220°
2026-04-25 11:30 12.70026 -151.86498 27935 ft 469 kts 220°
2026-04-25 11:30 12.67453 -151.88558 27941 ft 469 kts 220°
2026-04-25 11:30 12.64907 -151.90596 27939 ft 469 kts 220°
2026-04-25 11:30 12.62329 -151.92659 27950 ft 469 kts 220°
2026-04-25 11:31 12.59754 -151.94720 27924 ft 469 kts 220°
2026-04-25 11:31 12.57176 -151.96781 27921 ft 469 kts 220°
2026-04-25 11:31 12.54600 -151.98842 27927 ft 470 kts 220°
2026-04-25 11:31 12.52020 -152.00904 27931 ft 470 kts 220°
2026-04-25 11:32 12.49480 -152.02935 27935 ft 470 kts 220°
2026-04-25 11:32 12.46901 -152.04995 27933 ft 470 kts 220°
2026-04-25 11:32 12.44320 -152.07057 27931 ft 470 kts 220°
2026-04-25 11:32 12.41739 -152.09118 27929 ft 470 kts 220°
2026-04-25 11:33 12.39161 -152.11177 27933 ft 471 kts 220°
2026-04-25 11:33 12.36571 -152.13244 27927 ft 471 kts 220°
2026-04-25 11:33 12.33990 -152.15304 27928 ft 471 kts 220°
2026-04-25 11:33 12.31408 -152.17364 27931 ft 471 kts 220°
2026-04-25 11:34 12.28822 -152.19426 27923 ft 471 kts 220°
2026-04-25 11:34 12.26234 -152.21490 27926 ft 471 kts 220°
2026-04-25 11:34 12.23649 -152.23551 27927 ft 471 kts 220°
2026-04-25 11:34 12.21061 -152.25613 27929 ft 471 kts 220°
2026-04-25 11:35 12.18473 -152.27675 27928 ft 472 kts 220°
2026-04-25 11:35 12.15909 -152.29718 27933 ft 472 kts 220°
2026-04-25 11:35 12.13316 -152.31783 27929 ft 472 kts 220°
2026-04-25 11:35 12.10725 -152.33846 27927 ft 472 kts 220°
2026-04-25 11:36 12.08159 -152.35889 27922 ft 472 kts 220°
2026-04-25 11:36 12.05560 -152.37957 27923 ft 472 kts 220°
2026-04-25 11:36 12.02960 -152.40025 27923 ft 472 kts 220°
2026-04-25 11:36 12.00398 -152.42063 27918 ft 472 kts 220°
2026-04-25 11:37 11.97803 -152.44127 27922 ft 472 kts 220°
2026-04-25 11:37 11.95208 -152.46189 27925 ft 472 kts 220°
2026-04-25 11:37 11.92619 -152.48247 27926 ft 472 kts 220°
2026-04-25 11:37 11.90023 -152.50310 27927 ft 472 kts 220°
2026-04-25 11:38 11.87435 -152.52366 27924 ft 472 kts 220°
2026-04-25 11:38 11.84842 -152.54425 27922 ft 472 kts 220°
2026-04-25 11:38 11.82250 -152.56483 27920 ft 472 kts 220°
2026-04-25 11:38 11.79658 -152.58541 27922 ft 472 kts 220°
2026-04-25 11:39 11.77092 -152.60577 27926 ft 472 kts 220°
2026-04-25 11:39 11.74496 -152.62637 27917 ft 472 kts 220°
2026-04-25 11:39 11.71903 -152.64694 27922 ft 472 kts 220°
2026-04-25 11:39 11.69302 -152.66757 27909 ft 472 kts 220°
2026-04-25 11:40 11.66703 -152.68817 27930 ft 472 kts 220°
2026-04-25 11:40 11.64111 -152.70871 27914 ft 472 kts 220°
2026-04-25 11:40 11.61506 -152.72936 27915 ft 472 kts 220°
2026-04-25 11:40 11.58909 -152.74993 27927 ft 472 kts 220°
2026-04-25 11:41 11.56315 -152.77048 27912 ft 472 kts 220°
2026-04-25 11:41 11.53719 -152.79104 27916 ft 472 kts 220°
2026-04-25 11:41 11.51157 -152.81132 27916 ft 472 kts 220°
2026-04-25 11:41 11.48565 -152.83184 27910 ft 472 kts 220°
2026-04-25 11:42 11.45969 -152.85238 27917 ft 472 kts 220°
2026-04-25 11:42 11.43370 -152.87294 27918 ft 472 kts 220°
2026-04-25 11:42 11.40772 -152.89349 27922 ft 473 kts 220°
2026-04-25 11:42 11.38174 -152.91403 27916 ft 473 kts 220°
2026-04-25 11:43 11.35576 -152.93457 27914 ft 473 kts 220°
2026-04-25 11:43 11.32978 -152.95511 27916 ft 473 kts 220°
2026-04-25 11:43 11.30377 -152.97566 27912 ft 473 kts 220°
2026-04-25 11:43 11.27770 -152.99625 27911 ft 473 kts 220°
2026-04-25 11:44 11.26046 -153.00987 27912 ft 473 kts 220°
2026-04-25 11:44 11.22602 -153.03707 27912 ft 473 kts 220°
2026-04-25 11:44 11.19997 -153.05763 27908 ft 472 kts 220°
2026-04-25 11:44 11.18274 -153.07123 27907 ft 472 kts 220°
2026-04-25 11:45 11.15674 -153.09175 27911 ft 472 kts 220°
2026-04-25 11:45 11.13065 -153.11233 27904 ft 472 kts 220°
2026-04-25 11:45 11.10466 -153.13283 27911 ft 472 kts 220°
2026-04-25 11:45 11.07866 -153.15334 27911 ft 472 kts 220°
2026-04-25 11:46 11.05264 -153.17385 27909 ft 472 kts 220°
2026-04-25 11:46 11.02694 -153.19411 27905 ft 472 kts 220°
2026-04-25 11:46 11.00094 -153.21459 27908 ft 472 kts 220°
2026-04-25 11:46 10.97491 -153.23510 27906 ft 472 kts 220°
2026-04-25 11:47 10.94890 -153.25559 27912 ft 472 kts 220°
2026-04-25 11:47 10.92289 -153.27607 27912 ft 472 kts 220°
2026-04-25 11:47 10.89687 -153.29656 27905 ft 472 kts 220°
2026-04-25 11:47 10.87090 -153.31700 27906 ft 472 kts 220°
2026-04-25 11:48 10.84490 -153.33747 27906 ft 472 kts 220°
2026-04-25 11:48 10.81924 -153.35766 27904 ft 472 kts 220°
2026-04-25 11:48 10.79326 -153.37809 27892 ft 472 kts 220°
2026-04-25 11:48 10.76723 -153.39856 27899 ft 472 kts 220°
2026-04-25 11:49 10.74123 -153.41901 27900 ft 472 kts 220°
2026-04-25 11:49 10.71522 -153.43945 27908 ft 472 kts 220°
2026-04-25 11:49 10.68925 -153.45986 27905 ft 472 kts 220°
2026-04-25 11:49 10.66324 -153.48030 27897 ft 472 kts 220°
2026-04-25 11:50 10.63726 -153.50071 27902 ft 472 kts 220°
2026-04-25 11:50 10.61125 -153.52114 27902 ft 472 kts 220°
2026-04-25 11:50 10.58528 -153.54153 27903 ft 472 kts 220°
2026-04-25 11:50 10.55924 -153.56197 27902 ft 472 kts 220°
2026-04-25 11:51 10.53327 -153.58235 27900 ft 472 kts 220°
2026-04-25 11:51 10.50725 -153.60277 27896 ft 472 kts 220°
2026-04-25 11:51 10.48121 -153.62320 27897 ft 472 kts 220°
2026-04-25 11:51 10.45552 -153.64336 27900 ft 472 kts 220°
2026-04-25 11:52 10.42947 -153.66378 27898 ft 472 kts 220°
2026-04-25 11:52 10.40346 -153.68418 27895 ft 472 kts 220°
2026-04-25 11:52 10.37734 -153.70465 27896 ft 472 kts 220°
2026-04-25 11:52 10.35132 -153.72504 27896 ft 472 kts 220°
2026-04-25 11:53 10.32531 -153.74542 27897 ft 472 kts 220°
2026-04-25 11:53 10.29930 -153.76580 27898 ft 472 kts 220°
2026-04-25 11:53 10.27356 -153.78596 27895 ft 472 kts 220°
2026-04-25 11:53 10.24754 -153.80634 27896 ft 472 kts 220°
2026-04-25 11:54 10.22149 -153.82673 27895 ft 472 kts 220°
2026-04-25 11:54 10.19542 -153.84713 27897 ft 472 kts 220°
2026-04-25 11:54 10.14332 -153.88791 27888 ft 472 kts 220°
2026-04-25 11:55 10.11732 -153.90824 27889 ft 472 kts 220°
2026-04-25 11:55 10.09131 -153.92859 27894 ft 472 kts 220°
2026-04-25 11:55 10.06527 -153.94896 27896 ft 472 kts 220°
2026-04-25 11:55 10.03964 -153.96900 27890 ft 472 kts 220°
2026-04-25 11:56 10.01363 -153.98932 27896 ft 472 kts 220°
2026-04-25 11:56 9.98713 -154.00904 27891 ft 473 kts 216°
2026-04-25 11:56 9.95958 -154.02732 27898 ft 473 kts 216°
2026-04-25 11:56 9.93195 -154.04540 27899 ft 473 kts 216°
2026-04-25 11:57 9.90427 -154.06348 27886 ft 473 kts 216°
2026-04-25 11:57 9.87653 -154.08163 27884 ft 473 kts 216°
2026-04-25 11:57 9.84887 -154.09976 27876 ft 473 kts 216°
2026-04-25 11:57 9.82124 -154.11793 27881 ft 473 kts 216°
2026-04-25 11:58 9.79364 -154.13611 27886 ft 473 kts 216°
2026-04-25 11:58 9.76603 -154.15431 27884 ft 473 kts 216°
2026-04-25 11:58 9.73843 -154.17251 27885 ft 473 kts 216°
2026-04-25 11:58 9.71081 -154.19073 27884 ft 473 kts 216°
2026-04-25 11:59 9.68360 -154.20867 27886 ft 473 kts 216°
2026-04-25 11:59 9.65599 -154.22686 27885 ft 473 kts 216°
2026-04-25 11:59 9.62839 -154.24505 27885 ft 473 kts 216°
2026-04-25 12:00 9.57314 -154.28144 27886 ft 473 kts 216°
2026-04-25 12:00 9.54552 -154.29962 27876 ft 472 kts 216°
2026-04-25 12:00 9.49044 -154.33587 27884 ft 472 kts 216°
2026-04-25 12:01 9.46293 -154.35397 27886 ft 472 kts 216°
2026-04-25 12:01 9.43538 -154.37210 27882 ft 472 kts 216°
2026-04-25 12:01 9.40789 -154.39018 27879 ft 471 kts 216°
2026-04-25 12:01 9.38037 -154.40828 27880 ft 471 kts 216°
2026-04-25 12:02 9.32572 -154.44421 27879 ft 471 kts 216°
2026-04-25 12:02 9.29818 -154.46231 27879 ft 471 kts 216°
2026-04-25 12:02 9.27073 -154.48035 27879 ft 471 kts 216°
2026-04-25 12:03 9.24326 -154.49839 27880 ft 471 kts 216°
2026-04-25 12:03 9.21576 -154.51646 27874 ft 471 kts 216°
2026-04-25 12:03 9.18826 -154.53452 27878 ft 471 kts 216°
2026-04-25 12:03 9.16074 -154.55259 27878 ft 471 kts 216°
2026-04-25 12:04 9.13329 -154.57062 27877 ft 471 kts 216°
2026-04-25 12:04 9.10606 -154.58849 27876 ft 471 kts 216°
2026-04-25 12:04 9.07857 -154.60653 27876 ft 471 kts 216°
2026-04-25 12:04 9.05105 -154.62459 27877 ft 471 kts 216°
2026-04-25 12:05 9.02354 -154.64263 27876 ft 471 kts 216°
2026-04-25 12:05 8.99607 -154.66065 27873 ft 471 kts 216°
2026-04-25 12:05 8.96854 -154.67871 27876 ft 471 kts 216°
2026-04-25 12:05 8.94100 -154.69676 27873 ft 471 kts 216°
2026-04-25 12:06 8.91345 -154.71482 27873 ft 471 kts 216°
2026-04-25 12:06 8.88594 -154.73285 27865 ft 471 kts 216°
2026-04-25 12:06 8.85839 -154.75090 27870 ft 471 kts 216°
2026-04-25 12:06 8.83127 -154.76867 27871 ft 471 kts 216°
2026-04-25 12:07 8.80378 -154.78668 27874 ft 470 kts 216°
2026-04-25 12:07 8.77628 -154.80469 27868 ft 470 kts 216°
2026-04-25 12:07 8.74881 -154.82268 27874 ft 470 kts 216°
2026-04-25 12:07 8.72134 -154.84066 27871 ft 470 kts 216°
2026-04-25 12:08 8.69390 -154.85863 27874 ft 470 kts 216°
2026-04-25 12:08 8.66640 -154.87663 27868 ft 470 kts 216°
2026-04-25 12:08 8.63895 -154.89459 27870 ft 470 kts 216°
2026-04-25 12:08 8.61147 -154.91257 27872 ft 470 kts 216°
2026-04-25 12:09 8.58398 -154.93055 27858 ft 470 kts 216°
2026-04-25 12:09 8.55653 -154.94850 27866 ft 470 kts 216°
2026-04-25 12:09 8.52938 -154.96626 27871 ft 470 kts 216°
2026-04-25 12:09 8.50192 -154.98421 27865 ft 470 kts 216°
2026-04-25 12:10 8.47443 -155.00218 27864 ft 470 kts 216°
2026-04-25 12:10 8.44701 -155.02010 27869 ft 470 kts 216°
2026-04-25 12:10 8.41956 -155.03804 27869 ft 470 kts 216°
2026-04-25 12:10 8.39211 -155.05598 27868 ft 470 kts 216°
2026-04-25 12:11 8.36465 -155.07391 27865 ft 470 kts 216°
2026-04-25 12:11 8.33717 -155.09186 27866 ft 470 kts 216°
2026-04-25 12:11 8.30969 -155.10981 27866 ft 470 kts 216°
2026-04-25 12:11 8.28223 -155.12774 27866 ft 470 kts 216°
2026-04-25 12:12 8.25512 -155.14543 27861 ft 470 kts 216°
2026-04-25 12:12 8.23659 -155.15752 27861 ft 470 kts 216°
2026-04-25 12:12 8.20015 -155.18131 27866 ft 470 kts 216°
2026-04-25 12:12 8.17260 -155.19929 27867 ft 470 kts 216°
2026-04-25 12:13 8.14508 -155.21724 27867 ft 471 kts 216°
2026-04-25 12:13 8.11756 -155.23519 27866 ft 471 kts 216°
2026-04-25 12:13 8.09003 -155.25314 27866 ft 471 kts 216°
2026-04-25 12:13 8.06247 -155.27112 27866 ft 471 kts 216°
2026-04-25 12:14 8.03488 -155.28910 27866 ft 471 kts 216°
2026-04-25 12:14 8.00731 -155.30707 27864 ft 472 kts 216°
2026-04-25 12:14 7.98006 -155.32483 27865 ft 472 kts 216°
2026-04-25 12:14 7.95247 -155.34281 27867 ft 472 kts 216°
2026-04-25 12:15 7.92488 -155.36078 27857 ft 472 kts 216°
2026-04-25 12:15 7.89729 -155.37876 27858 ft 472 kts 216°
2026-04-25 12:15 7.86962 -155.39678 27864 ft 473 kts 216°
2026-04-25 12:15 7.84192 -155.41482 27868 ft 473 kts 216°
2026-04-25 12:16 7.81423 -155.43284 27865 ft 473 kts 216°
2026-04-25 12:16 7.78652 -155.45088 27863 ft 474 kts 216°
2026-04-25 12:16 7.75919 -155.46867 27863 ft 474 kts 216°
2026-04-25 12:16 7.73144 -155.48673 27864 ft 474 kts 216°
2026-04-25 12:17 7.70363 -155.50483 27863 ft 474 kts 216°
2026-04-25 12:17 7.67589 -155.52287 27863 ft 474 kts 216°
2026-04-25 12:17 7.64817 -155.54090 27863 ft 474 kts 216°
2026-04-25 12:17 7.62039 -155.55897 27863 ft 474 kts 216°
2026-04-25 12:18 7.59265 -155.57700 27852 ft 474 kts 216°
2026-04-25 12:18 7.56521 -155.59484 27856 ft 474 kts 216°
2026-04-25 12:18 7.53747 -155.61288 27860 ft 474 kts 216°
2026-04-25 12:18 7.50972 -155.63091 27861 ft 474 kts 216°
2026-04-25 12:19 7.46325 -155.66111 27859 ft 475 kts 216°
2026-04-25 12:19 7.42646 -155.68502 27857 ft 475 kts 216°
2026-04-25 12:19 7.39864 -155.70308 27857 ft 475 kts 216°
2026-04-25 12:20 7.37085 -155.72113 27860 ft 475 kts 216°
2026-04-25 12:20 7.34307 -155.73917 27858 ft 475 kts 216°
2026-04-25 12:20 7.31524 -155.75724 27856 ft 475 kts 216°
2026-04-25 12:20 7.28748 -155.77526 27858 ft 475 kts 216°
2026-04-25 12:21 7.25971 -155.79328 27858 ft 475 kts 216°
2026-04-25 12:21 7.23194 -155.81131 27857 ft 475 kts 216°
2026-04-25 12:21 7.20417 -155.82932 27855 ft 475 kts 216°
2026-04-25 12:21 7.17679 -155.84709 27855 ft 475 kts 216°
2026-04-25 12:22 7.14902 -155.86510 27854 ft 475 kts 216°
2026-04-25 12:22 7.12129 -155.88309 27855 ft 474 kts 216°
2026-04-25 12:22 7.09351 -155.90110 27855 ft 475 kts 216°
2026-04-25 12:22 7.06570 -155.91914 27855 ft 475 kts 216°
2026-04-25 12:23 7.03795 -155.93713 27853 ft 475 kts 216°
2026-04-25 12:23 7.01011 -155.95517 27855 ft 475 kts 216°
2026-04-25 12:23 6.98238 -155.97315 27855 ft 475 kts 216°
2026-04-25 12:23 6.95454 -155.99119 27857 ft 475 kts 216°
2026-04-25 12:24 6.92668 -156.00924 27850 ft 475 kts 216°
2026-04-25 12:24 6.89921 -156.02704 27855 ft 475 kts 216°
2026-04-25 12:24 6.87134 -156.04509 27859 ft 475 kts 216°
2026-04-25 12:24 6.84355 -156.06309 27858 ft 475 kts 216°
2026-04-25 12:25 6.81574 -156.08110 27859 ft 476 kts 216°
2026-04-25 12:25 6.78789 -156.09913 27855 ft 476 kts 216°
2026-04-25 12:25 6.76001 -156.11718 27855 ft 476 kts 216°
2026-04-25 12:25 6.73215 -156.13521 27857 ft 476 kts 216°
2026-04-25 12:26 6.70432 -156.15322 27857 ft 476 kts 216°
2026-04-25 12:26 6.67644 -156.17126 27857 ft 476 kts 216°
2026-04-25 12:26 6.64851 -156.18933 27858 ft 476 kts 216°
2026-04-25 12:26 6.62069 -156.20733 27858 ft 476 kts 216°
2026-04-25 12:27 6.59282 -156.22536 27850 ft 476 kts 215°
2026-04-25 12:27 6.56493 -156.24340 27853 ft 477 kts 215°
2026-04-25 12:27 6.53738 -156.26122 27857 ft 477 kts 215°
2026-04-25 12:27 6.50949 -156.27925 27857 ft 477 kts 215°
2026-04-25 12:28 6.48147 -156.29736 27855 ft 478 kts 215°
2026-04-25 12:28 6.45346 -156.31547 27856 ft 478 kts 215°
2026-04-25 12:28 6.42541 -156.33360 27855 ft 478 kts 215°
2026-04-25 12:28 6.39744 -156.35167 27854 ft 478 kts 215°
2026-04-25 12:29 6.36939 -156.36980 27855 ft 478 kts 215°
2026-04-25 12:29 6.34168 -156.38770 27854 ft 478 kts 215°
2026-04-25 12:29 6.31367 -156.40580 27856 ft 478 kts 215°
2026-04-25 12:29 6.28569 -156.42387 27855 ft 478 kts 215°
2026-04-25 12:30 6.25763 -156.44199 27850 ft 478 kts 214°
2026-04-25 12:30 6.22963 -156.46007 27852 ft 479 kts 214°
2026-04-25 12:30 6.20161 -156.47816 27856 ft 479 kts 214°
2026-04-25 12:30 6.17356 -156.49627 27856 ft 479 kts 214°
2026-04-25 12:31 6.14548 -156.51440 27860 ft 479 kts 214°
2026-04-25 12:31 6.11737 -156.53254 27851 ft 479 kts 214°
2026-04-25 12:31 6.08967 -156.55041 27852 ft 479 kts 214°
2026-04-25 12:31 6.06155 -156.56856 27853 ft 479 kts 214°
2026-04-25 12:32 6.03346 -156.58668 27850 ft 480 kts 214°
2026-04-25 12:32 6.00529 -156.60485 27852 ft 480 kts 214°
2026-04-25 12:32 5.97716 -156.62300 27853 ft 480 kts 214°
2026-04-25 12:32 5.94904 -156.64113 27851 ft 480 kts 214°
2026-04-25 12:33 5.92126 -156.65905 27851 ft 480 kts 214°
2026-04-25 12:33 5.89314 -156.67718 27854 ft 480 kts 214°
2026-04-25 12:33 5.86505 -156.69529 27857 ft 480 kts 214°
2026-04-25 12:33 5.83694 -156.71340 27854 ft 480 kts 214°
2026-04-25 12:34 5.80877 -156.73156 27851 ft 480 kts 214°
2026-04-25 12:34 5.79013 -156.74357 27852 ft 480 kts 214°
2026-04-25 12:34 5.76194 -156.76174 27854 ft 480 kts 214°
2026-04-25 12:34 5.74330 -156.77375 27853 ft 480 kts 214°
2026-04-25 12:35 5.70563 -156.79802 27848 ft 480 kts 214°
2026-04-25 12:35 5.67747 -156.81616 27850 ft 480 kts 214°
2026-04-25 12:35 5.64960 -156.83411 27849 ft 480 kts 214°
2026-04-25 12:35 5.62142 -156.85226 27848 ft 480 kts 214°
2026-04-25 12:36 5.59330 -156.87037 27847 ft 480 kts 214°
2026-04-25 12:36 5.56510 -156.88852 27848 ft 480 kts 214°
2026-04-25 12:36 5.53699 -156.90662 27845 ft 480 kts 214°
2026-04-25 12:36 5.50883 -156.92475 27848 ft 480 kts 214°
2026-04-25 12:37 5.48069 -156.94286 27853 ft 480 kts 214°
2026-04-25 12:37 5.45255 -156.96097 27853 ft 480 kts 214°
2026-04-25 12:37 5.42440 -156.97909 27852 ft 481 kts 214°
2026-04-25 12:37 5.39623 -156.99722 27853 ft 481 kts 214°
2026-04-25 12:38 5.36809 -157.01532 27851 ft 481 kts 214°
2026-04-25 12:38 5.34019 -157.03327 27848 ft 481 kts 214°
2026-04-25 12:38 5.31203 -157.05139 27848 ft 481 kts 214°
2026-04-25 12:38 5.28378 -157.06955 27850 ft 481 kts 214°
2026-04-25 12:39 5.25558 -157.08769 27847 ft 481 kts 214°
2026-04-25 12:39 5.22739 -157.10582 27850 ft 481 kts 214°
2026-04-25 12:39 5.19923 -157.12392 27849 ft 480 kts 214°
2026-04-25 12:39 5.17105 -157.14204 27846 ft 480 kts 214°
2026-04-25 12:40 5.14323 -157.15993 27849 ft 480 kts 214°
2026-04-25 12:40 5.11506 -157.17803 27849 ft 480 kts 214°
2026-04-25 12:40 5.08696 -157.19610 27848 ft 480 kts 214°
2026-04-25 12:40 5.05879 -157.21421 27849 ft 479 kts 214°
2026-04-25 12:41 5.03068 -157.23227 27847 ft 479 kts 214°
2026-04-25 12:41 5.00253 -157.25030 27847 ft 479 kts 213°
2026-04-25 12:41 4.97405 -157.26692 27846 ft 480 kts 211°
2026-04-25 12:41 4.94475 -157.28315 27853 ft 480 kts 210°
2026-04-25 12:42 4.91543 -157.29920 27846 ft 480 kts 210°
2026-04-25 12:42 4.89600 -157.30980 27844 ft 481 kts 210°
2026-04-25 12:42 4.85664 -157.33133 27852 ft 481 kts 210°
2026-04-25 12:42 4.82755 -157.34731 27854 ft 482 kts 210°
2026-04-25 12:43 4.79775 -157.36371 27852 ft 483 kts 210°
2026-04-25 12:43 4.76869 -157.37975 27847 ft 483 kts 210°
2026-04-25 12:43 4.70953 -157.41242 27848 ft 484 kts 210°
2026-04-25 12:44 4.68004 -157.42872 27849 ft 484 kts 210°
2026-04-25 12:44 4.65084 -157.44485 27846 ft 484 kts 210°
2026-04-25 12:44 4.59178 -157.47746 27847 ft 484 kts 210°
2026-04-25 12:45 4.56232 -157.49373 27846 ft 483 kts 210°
2026-04-25 12:45 4.53283 -157.51000 27847 ft 483 kts 210°
2026-04-25 12:45 4.47392 -157.54252 27846 ft 482 kts 210°
2026-04-25 12:46 4.44446 -157.55877 27842 ft 482 kts 210°
2026-04-25 12:46 4.41548 -157.57476 27843 ft 482 kts 210°
2026-04-25 12:46 4.38614 -157.59095 27845 ft 482 kts 210°
2026-04-25 12:46 4.35678 -157.60715 27843 ft 482 kts 210°
2026-04-25 12:47 4.32744 -157.62333 27844 ft 482 kts 210°
2026-04-25 12:47 4.29811 -157.63951 27845 ft 482 kts 210°
2026-04-25 12:47 4.26874 -157.65571 27844 ft 482 kts 210°
2026-04-25 12:47 4.23940 -157.67189 27844 ft 482 kts 210°
2026-04-25 12:48 4.20992 -157.68815 27842 ft 482 kts 210°
2026-04-25 12:48 4.18053 -157.70435 27845 ft 482 kts 210°
2026-04-25 12:48 4.15110 -157.72058 27844 ft 482 kts 210°
2026-04-25 12:48 4.12205 -157.73659 27842 ft 482 kts 210°
2026-04-25 12:49 4.09265 -157.75280 27844 ft 482 kts 210°
2026-04-25 12:49 4.06324 -157.76901 27844 ft 482 kts 210°
2026-04-25 12:49 4.03392 -157.78517 27844 ft 482 kts 210°
2026-04-25 12:49 4.00447 -157.80140 27844 ft 482 kts 210°
2026-04-25 12:50 3.97502 -157.81763 27844 ft 482 kts 210°
2026-04-25 12:50 3.94560 -157.83384 27845 ft 482 kts 210°
2026-04-25 12:50 3.91621 -157.85003 27844 ft 482 kts 210°
2026-04-25 12:50 3.88713 -157.86605 27844 ft 482 kts 210°
2026-04-25 12:51 3.85773 -157.88225 27844 ft 482 kts 210°
2026-04-25 12:51 3.82832 -157.89845 27844 ft 482 kts 210°
2026-04-25 12:51 3.79890 -157.91465 27844 ft 482 kts 210°
2026-04-25 12:51 3.76953 -157.93083 27844 ft 482 kts 210°
2026-04-25 12:52 3.74016 -157.94700 27846 ft 482 kts 210°
2026-04-25 12:52 3.71073 -157.96321 27845 ft 482 kts 210°
2026-04-25 12:52 3.68133 -157.97940 27843 ft 482 kts 210°
2026-04-25 12:52 3.65195 -157.99558 27843 ft 482 kts 210°
2026-04-25 12:53 3.62297 -158.01153 27845 ft 482 kts 210°
2026-04-25 12:53 3.59355 -158.02773 27842 ft 482 kts 210°
2026-04-25 12:53 3.56414 -158.04392 27843 ft 482 kts 210°
2026-04-25 12:53 3.53478 -158.06008 27841 ft 482 kts 210°
2026-04-25 12:54 3.50540 -158.07625 27842 ft 481 kts 210°
2026-04-25 12:54 3.47597 -158.09245 27840 ft 481 kts 210°
2026-04-25 12:54 3.44660 -158.10861 27842 ft 481 kts 210°
2026-04-25 12:54 3.41724 -158.12476 27845 ft 481 kts 210°
2026-04-25 12:55 3.38795 -158.14088 27845 ft 480 kts 210°
2026-04-25 12:55 3.36851 -158.15157 27843 ft 480 kts 210°
2026-04-25 12:55 3.32971 -158.17292 27845 ft 480 kts 210°
2026-04-25 12:55 3.30041 -158.18904 27845 ft 480 kts 210°
2026-04-25 12:56 3.27109 -158.20517 27839 ft 480 kts 210°
2026-04-25 12:56 3.24174 -158.22131 27842 ft 481 kts 210°
2026-04-25 12:56 3.21247 -158.23741 27845 ft 481 kts 210°
2026-04-25 12:56 3.18315 -158.25354 27839 ft 481 kts 210°
2026-04-25 12:57 3.15373 -158.26971 27842 ft 481 kts 210°
2026-04-25 12:57 3.12470 -158.28567 27843 ft 481 kts 210°
2026-04-25 12:57 3.09531 -158.30184 27839 ft 481 kts 210°
2026-04-25 12:57 3.06599 -158.31796 27841 ft 481 kts 210°
2026-04-25 12:58 3.03660 -158.33412 27840 ft 481 kts 210°
2026-04-25 12:58 3.00724 -158.35025 27840 ft 481 kts 210°
2026-04-25 12:58 2.97785 -158.36641 27840 ft 481 kts 210°
2026-04-25 12:58 2.94888 -158.38233 27840 ft 480 kts 210°
2026-04-25 12:59 2.91955 -158.39846 27840 ft 480 kts 210°
2026-04-25 12:59 2.89026 -158.41456 27839 ft 480 kts 210°
2026-04-25 12:59 2.86099 -158.43064 27841 ft 480 kts 210°
2026-04-25 12:59 2.83166 -158.44676 27839 ft 480 kts 210°
2026-04-25 13:00 2.80223 -158.46294 27844 ft 480 kts 209°
2026-04-25 13:00 2.79271 -158.46817 27841 ft 480 kts 209°
2026-04-25 13:00 2.74399 -158.49493 27843 ft 480 kts 209°
2026-04-25 13:00 2.71475 -158.51100 27847 ft 480 kts 209°
2026-04-25 13:01 2.68541 -158.52712 27839 ft 480 kts 209°
2026-04-25 13:01 2.65612 -158.54321 27835 ft 480 kts 209°
2026-04-25 13:01 2.62670 -158.55937 27837 ft 481 kts 209°
2026-04-25 13:01 2.59737 -158.57548 27838 ft 481 kts 209°
2026-04-25 13:02 2.56806 -158.59158 27837 ft 481 kts 209°
2026-04-25 13:02 2.53903 -158.60752 27838 ft 481 kts 209°
2026-04-25 13:02 2.50968 -158.62364 27840 ft 481 kts 209°
2026-04-25 13:02 2.48029 -158.63979 27835 ft 481 kts 209°
2026-04-25 13:03 2.45093 -158.65591 27838 ft 481 kts 209°
2026-04-25 13:03 2.42152 -158.67206 27842 ft 481 kts 209°
2026-04-25 13:03 2.39255 -158.68797 27837 ft 481 kts 209°
2026-04-25 13:03 2.36284 -158.70428 27838 ft 481 kts 209°
2026-04-25 13:04 2.33391 -158.72016 27836 ft 481 kts 209°
2026-04-25 13:04 2.30461 -158.73625 27837 ft 481 kts 209°
2026-04-25 13:04 2.27530 -158.75234 27837 ft 481 kts 209°
2026-04-25 13:04 2.24595 -158.76846 27836 ft 481 kts 209°
2026-04-25 13:05 2.21658 -158.78458 27835 ft 481 kts 209°
2026-04-25 13:05 2.18726 -158.80067 27835 ft 480 kts 209°
2026-04-25 13:05 2.15797 -158.81675 27836 ft 480 kts 209°
2026-04-25 13:05 2.12865 -158.83284 27834 ft 480 kts 209°
2026-04-25 13:06 2.09937 -158.84891 27834 ft 480 kts 209°
2026-04-25 13:06 2.07005 -158.86500 27840 ft 480 kts 209°
2026-04-25 13:06 2.04075 -158.88109 27837 ft 480 kts 209°
2026-04-25 13:06 2.01187 -158.89693 27837 ft 480 kts 209°
2026-04-25 13:07 1.98250 -158.91305 27839 ft 480 kts 209°
2026-04-25 13:07 1.95319 -158.92914 27837 ft 480 kts 209°
2026-04-25 13:07 1.92389 -158.94521 27838 ft 480 kts 209°
2026-04-25 13:07 1.89463 -158.96127 27840 ft 480 kts 209°
2026-04-25 13:08 1.86532 -158.97735 27838 ft 480 kts 209°
2026-04-25 13:08 1.83597 -158.99345 27837 ft 480 kts 209°
2026-04-25 13:08 1.80666 -159.00953 27836 ft 480 kts 209°
2026-04-25 13:08 1.77731 -159.02563 27839 ft 480 kts 209°
2026-04-25 13:09 1.74802 -159.04170 27836 ft 480 kts 209°
2026-04-25 13:09 1.71906 -159.05758 27835 ft 480 kts 209°
2026-04-25 13:09 1.68971 -159.07368 27833 ft 480 kts 209°
2026-04-25 13:09 1.66047 -159.08973 27834 ft 480 kts 209°
2026-04-25 13:10 1.63115 -159.10581 27837 ft 480 kts 209°
2026-04-25 13:10 1.60188 -159.12187 27838 ft 480 kts 209°
2026-04-25 13:10 1.57259 -159.13793 27839 ft 480 kts 209°
2026-04-25 13:10 1.54334 -159.15397 27838 ft 480 kts 209°
2026-04-25 13:11 1.51403 -159.17005 27838 ft 480 kts 209°
2026-04-25 13:11 1.48510 -159.18592 27838 ft 480 kts 209°
2026-04-25 13:11 1.45583 -159.20197 27839 ft 480 kts 209°
2026-04-25 13:11 1.42653 -159.21804 27836 ft 480 kts 209°
2026-04-25 13:12 1.39730 -159.23406 27839 ft 479 kts 209°
2026-04-25 13:12 1.36806 -159.25009 27839 ft 479 kts 209°
2026-04-25 13:12 1.33885 -159.26611 27835 ft 479 kts 209°
2026-04-25 13:12 1.31945 -159.27675 27835 ft 479 kts 209°
2026-04-25 13:13 1.28035 -159.29819 27845 ft 478 kts 209°
2026-04-25 13:13 1.25120 -159.31418 27841 ft 478 kts 209°
2026-04-25 13:13 1.22203 -159.33017 27842 ft 478 kts 209°
2026-04-25 13:13 1.19279 -159.34620 27840 ft 478 kts 209°
2026-04-25 13:14 1.16359 -159.36221 27839 ft 478 kts 209°
2026-04-25 13:14 1.13482 -159.37798 27839 ft 478 kts 209°
2026-04-25 13:14 1.10568 -159.39396 27841 ft 478 kts 209°
2026-04-25 13:14 1.07646 -159.40998 27838 ft 478 kts 209°
2026-04-25 13:15 1.04721 -159.42601 27837 ft 478 kts 209°
2026-04-25 13:15 1.01797 -159.44204 27842 ft 478 kts 209°
2026-04-25 13:15 0.98872 -159.45808 27842 ft 479 kts 209°
2026-04-25 13:15 0.95953 -159.47408 27846 ft 479 kts 209°
2026-04-25 13:16 0.93033 -159.49009 27839 ft 479 kts 209°
2026-04-25 13:16 0.90108 -159.50612 27843 ft 479 kts 209°
2026-04-25 13:16 0.87215 -159.52198 27843 ft 479 kts 209°
2026-04-25 13:16 0.84283 -159.53805 27843 ft 479 kts 209°
2026-04-25 13:17 0.81358 -159.55408 27842 ft 479 kts 209°
2026-04-25 13:17 0.78430 -159.57013 27840 ft 479 kts 209°
2026-04-25 13:17 0.75507 -159.58615 27838 ft 479 kts 209°
2026-04-25 13:17 0.72581 -159.60219 27838 ft 479 kts 209°
2026-04-25 13:18 0.69654 -159.61823 27841 ft 479 kts 209°
2026-04-25 13:18 0.66772 -159.63403 27837 ft 479 kts 209°
2026-04-25 13:18 0.63850 -159.65004 27839 ft 479 kts 209°
2026-04-25 13:18 0.60927 -159.66606 27838 ft 478 kts 209°
2026-04-25 13:19 0.58007 -159.68207 27840 ft 478 kts 209°
2026-04-25 13:19 0.55082 -159.69810 27837 ft 478 kts 209°
2026-04-25 13:19 0.52163 -159.71409 27839 ft 478 kts 209°
2026-04-25 13:19 0.51212 -159.71931 27837 ft 478 kts 209°
2026-04-25 13:20 0.46323 -159.74610 27838 ft 478 kts 209°
2026-04-25 13:20 0.43438 -159.76192 27836 ft 478 kts 209°
2026-04-25 13:20 0.40519 -159.77791 27844 ft 478 kts 209°
2026-04-25 13:20 0.37593 -159.79395 27841 ft 478 kts 209°
2026-04-25 13:21 0.34672 -159.80996 27835 ft 478 kts 209°
2026-04-25 13:21 0.31788 -159.82576 27843 ft 478 kts 209°
2026-04-25 13:21 0.28874 -159.84173 27838 ft 478 kts 209°
2026-04-25 13:21 0.25948 -159.85777 27836 ft 478 kts 209°
2026-04-25 13:22 0.23024 -159.87379 27844 ft 478 kts 209°
2026-04-25 13:22 0.20108 -159.88978 27836 ft 478 kts 209°
2026-04-25 13:22 0.17189 -159.90577 27843 ft 478 kts 209°
2026-04-25 13:23 0.11355 -159.93775 27840 ft 478 kts 209°
2026-04-25 13:23 0.08437 -159.95374 27837 ft 478 kts 209°
2026-04-25 13:23 0.05561 -159.96951 27836 ft 478 kts 209°
2026-04-25 13:23 0.02647 -159.98548 27838 ft 478 kts 209°
2026-04-25 13:24 -0.00268 -160.00145 27839 ft 478 kts 210°
2026-04-25 13:24 -0.03153 -160.01788 27836 ft 478 kts 211°
2026-04-25 13:24 -0.06017 -160.03492 27839 ft 477 kts 211°
2026-04-25 13:24 -0.08862 -160.05217 27838 ft 477 kts 212°
2026-04-25 13:25 -0.11701 -160.06944 27838 ft 478 kts 212°
2026-04-25 13:25 -0.14514 -160.08651 27838 ft 478 kts 212°
2026-04-25 13:25 -0.17355 -160.10367 27845 ft 478 kts 211°
2026-04-25 13:25 -0.19246 -160.11505 27839 ft 478 kts 211°
2026-04-25 13:26 -0.22105 -160.13220 27846 ft 478 kts 211°
2026-04-25 13:26 -0.24956 -160.14927 27842 ft 478 kts 211°
2026-04-25 13:26 -0.27812 -160.16636 27840 ft 478 kts 211°
2026-04-25 13:26 -0.31592 -160.18895 27842 ft 478 kts 211°
2026-04-25 13:27 -0.34445 -160.20601 27838 ft 478 kts 211°
2026-04-25 13:27 -0.36374 -160.21754 27842 ft 478 kts 211°
2026-04-25 13:27 -0.39193 -160.23440 27841 ft 478 kts 211°
2026-04-25 13:27 -0.42046 -160.25147 27842 ft 478 kts 211°
2026-04-25 13:28 -0.44903 -160.26856 27842 ft 478 kts 211°
2026-04-25 13:28 -0.46829 -160.28008 27839 ft 478 kts 211°
2026-04-25 13:28 -0.50609 -160.30270 27842 ft 478 kts 211°
2026-04-25 13:28 -0.53464 -160.31977 27841 ft 478 kts 211°
2026-04-25 13:29 -0.56322 -160.33688 27841 ft 478 kts 211°
2026-04-25 13:29 -0.59174 -160.35394 27840 ft 478 kts 211°
2026-04-25 13:29 -0.62031 -160.37103 27839 ft 478 kts 211°
2026-04-25 13:30 -0.67741 -160.40519 27845 ft 478 kts 211°
2026-04-25 13:30 -0.70599 -160.42229 27841 ft 478 kts 211°
2026-04-25 13:30 -0.73450 -160.43935 27841 ft 478 kts 211°
2026-04-25 13:31 -0.79161 -160.47352 27846 ft 479 kts 211°
2026-04-25 13:31 -0.82021 -160.49064 27843 ft 479 kts 211°
2026-04-25 13:31 -0.84844 -160.50753 27844 ft 479 kts 211°
2026-04-25 13:31 -0.87710 -160.52468 27844 ft 479 kts 211°
2026-04-25 13:32 -0.90572 -160.54180 27843 ft 479 kts 211°
2026-04-25 13:32 -0.93433 -160.55892 27844 ft 479 kts 211°
2026-04-25 13:32 -0.96299 -160.57607 27845 ft 480 kts 211°
2026-04-25 13:32 -0.99160 -160.59319 27844 ft 480 kts 211°
2026-04-25 13:33 -1.02029 -160.61036 27843 ft 480 kts 211°
2026-04-25 13:33 -1.04893 -160.62750 27846 ft 480 kts 211°
2026-04-25 13:33 -1.07763 -160.64467 27844 ft 480 kts 211°
2026-04-25 13:33 -1.09663 -160.65605 27841 ft 480 kts 211°
2026-04-25 13:34 -1.13467 -160.67882 27843 ft 480 kts 211°
2026-04-25 13:34 -1.16336 -160.69599 27845 ft 480 kts 211°
2026-04-25 13:34 -1.19207 -160.71317 27848 ft 480 kts 211°
2026-04-25 13:34 -1.22074 -160.73033 27844 ft 480 kts 211°
2026-04-25 13:35 -1.24942 -160.74749 27842 ft 481 kts 211°
2026-04-25 13:35 -1.27813 -160.76468 27844 ft 481 kts 211°
2026-04-25 13:35 -1.30684 -160.78186 27843 ft 481 kts 211°
2026-04-25 13:35 -1.33555 -160.79904 27846 ft 481 kts 211°
2026-04-25 13:36 -1.36424 -160.81622 27845 ft 481 kts 211°
2026-04-25 13:36 -1.39261 -160.83320 27847 ft 481 kts 211°
2026-04-25 13:36 -1.42139 -160.85043 27841 ft 481 kts 211°
2026-04-25 13:36 -1.45014 -160.86764 27845 ft 481 kts 211°
2026-04-25 13:37 -1.47886 -160.88484 27835 ft 481 kts 211°
2026-04-25 13:37 -1.50760 -160.90204 27837 ft 481 kts 211°
2026-04-25 13:37 -1.53634 -160.91925 27840 ft 481 kts 211°
2026-04-25 13:37 -1.56510 -160.93647 27844 ft 482 kts 211°
2026-04-25 13:38 -1.59387 -160.95369 27842 ft 482 kts 211°
2026-04-25 13:38 -1.62260 -160.97090 27841 ft 482 kts 211°
2026-04-25 13:38 -1.65139 -160.98813 27841 ft 482 kts 211°
2026-04-25 13:38 -1.67986 -161.00518 27843 ft 482 kts 211°
2026-04-25 13:39 -1.70866 -161.02243 27843 ft 482 kts 211°
2026-04-25 13:39 -1.73749 -161.03969 27842 ft 482 kts 211°
2026-04-25 13:39 -1.76627 -161.05693 27844 ft 482 kts 211°
2026-04-25 13:39 -1.79504 -161.07416 27840 ft 482 kts 211°
2026-04-25 13:40 -1.82386 -161.09142 27836 ft 482 kts 211°
2026-04-25 13:40 -1.85269 -161.10868 27838 ft 482 kts 211°
2026-04-25 13:40 -1.88148 -161.12593 27843 ft 483 kts 211°
2026-04-25 13:40 -1.91027 -161.14318 27842 ft 483 kts 211°
2026-04-25 13:41 -1.93914 -161.16047 27845 ft 483 kts 211°
2026-04-25 13:41 -1.96800 -161.17776 27846 ft 483 kts 211°
2026-04-25 13:41 -1.99686 -161.19504 27844 ft 483 kts 211°
2026-04-25 13:41 -2.02575 -161.21235 27844 ft 483 kts 211°
2026-04-25 13:42 -2.05461 -161.22964 27843 ft 483 kts 211°
2026-04-25 13:42 -2.08315 -161.24674 27847 ft 483 kts 211°
2026-04-25 13:42 -2.11202 -161.26404 27841 ft 483 kts 211°
2026-04-25 13:42 -2.14090 -161.28134 27844 ft 483 kts 211°
2026-04-25 13:43 -2.16981 -161.29866 27849 ft 483 kts 211°
2026-04-25 13:43 -2.19874 -161.31600 27844 ft 483 kts 211°
2026-04-25 13:43 -2.22764 -161.33332 27849 ft 484 kts 211°
2026-04-25 13:43 -2.25650 -161.35062 27847 ft 484 kts 211°
2026-04-25 13:44 -2.28538 -161.36793 27846 ft 484 kts 211°
2026-04-25 13:44 -2.31393 -161.38503 27851 ft 484 kts 211°
2026-04-25 13:44 -2.34280 -161.40234 27844 ft 484 kts 211°
2026-04-25 13:44 -2.37173 -161.41968 27844 ft 484 kts 211°
2026-04-25 13:45 -2.40069 -161.43704 27847 ft 484 kts 211°
2026-04-25 13:45 -2.42959 -161.45436 27846 ft 484 kts 211°
2026-04-25 13:45 -2.45814 -161.47148 27845 ft 484 kts 211°
2026-04-25 13:45 -2.48703 -161.48880 27846 ft 484 kts 211°
2026-04-25 13:46 -2.51597 -161.50615 27843 ft 484 kts 211°
2026-04-25 13:46 -2.54483 -161.52345 27843 ft 484 kts 211°
2026-04-25 13:46 -2.57381 -161.54083 27843 ft 484 kts 211°
2026-04-25 13:46 -2.60272 -161.55817 27847 ft 484 kts 211°
2026-04-25 13:47 -2.63119 -161.57524 27845 ft 484 kts 211°
2026-04-25 13:47 -2.66015 -161.59261 27841 ft 484 kts 211°
2026-04-25 13:47 -2.68905 -161.60994 27847 ft 484 kts 211°
2026-04-25 13:47 -2.71805 -161.62733 27845 ft 484 kts 211°
2026-04-25 13:48 -2.74699 -161.64469 27840 ft 484 kts 211°
2026-04-25 13:48 -2.77593 -161.66205 27842 ft 484 kts 211°
2026-04-25 13:48 -2.80489 -161.67942 27846 ft 485 kts 211°
2026-04-25 13:48 -2.83379 -161.69676 27843 ft 485 kts 211°
2026-04-25 13:49 -2.86269 -161.71410 27846 ft 485 kts 211°
2026-04-25 13:49 -2.89161 -161.73145 27844 ft 485 kts 211°
2026-04-25 13:49 -2.92023 -161.74862 27847 ft 485 kts 211°
2026-04-25 13:49 -2.94917 -161.76599 27846 ft 484 kts 211°
2026-04-25 13:50 -2.97814 -161.78338 27851 ft 484 kts 211°
2026-04-25 13:50 -3.00707 -161.80074 27847 ft 484 kts 211°
2026-04-25 13:50 -3.03604 -161.81813 27856 ft 484 kts 211°
2026-04-25 13:50 -3.06493 -161.83547 27849 ft 484 kts 211°
2026-04-25 13:51 -3.09388 -161.85284 27846 ft 484 kts 211°
2026-04-25 13:51 -3.12276 -161.87018 27851 ft 484 kts 211°
2026-04-25 13:51 -3.15167 -161.88753 27850 ft 484 kts 211°
2026-04-25 13:51 -3.18059 -161.90490 27849 ft 484 kts 211°
2026-04-25 13:52 -3.20911 -161.92202 27851 ft 484 kts 211°
2026-04-25 13:52 -3.23805 -161.93939 27850 ft 485 kts 211°
2026-04-25 13:52 -3.26702 -161.95679 27849 ft 485 kts 211°
2026-04-25 13:52 -3.29595 -161.97416 27849 ft 485 kts 211°
2026-04-25 13:53 -3.32493 -161.99157 27849 ft 485 kts 211°
2026-04-25 13:53 -3.35392 -162.00898 27850 ft 485 kts 211°
2026-04-25 13:53 -3.38284 -162.02636 27849 ft 485 kts 211°
2026-04-25 13:53 -3.41178 -162.04374 27855 ft 485 kts 211°
2026-04-25 13:54 -3.44040 -162.06093 27850 ft 485 kts 211°
2026-04-25 13:54 -3.46940 -162.07835 27850 ft 485 kts 211°
2026-04-25 13:54 -3.49841 -162.09578 27852 ft 485 kts 211°
2026-04-25 13:54 -3.52742 -162.11321 27849 ft 485 kts 211°
2026-04-25 13:55 -3.55639 -162.13062 27851 ft 485 kts 211°
2026-04-25 13:55 -3.58532 -162.14800 27850 ft 485 kts 211°
2026-04-25 13:55 -3.61394 -162.16521 27849 ft 485 kts 211°
2026-04-25 13:55 -3.64287 -162.18260 27854 ft 485 kts 211°
2026-04-25 13:56 -3.67187 -162.20003 27851 ft 485 kts 211°
2026-04-25 13:56 -3.70081 -162.21743 27852 ft 485 kts 211°
2026-04-25 13:56 -3.72978 -162.23484 27853 ft 485 kts 211°
2026-04-25 13:56 -3.75877 -162.25227 27852 ft 485 kts 211°
2026-04-25 13:57 -3.78775 -162.26970 27849 ft 486 kts 211°
2026-04-25 13:57 -3.80693 -162.28122 27850 ft 486 kts 211°
2026-04-25 13:57 -3.84572 -162.30455 27851 ft 486 kts 211°
2026-04-25 13:57 -3.87473 -162.32200 27852 ft 486 kts 211°
2026-04-25 13:58 -3.90372 -162.33944 27858 ft 487 kts 211°
2026-04-25 13:58 -3.93282 -162.35695 27853 ft 487 kts 211°
2026-04-25 13:58 -3.96145 -162.37417 27852 ft 487 kts 211°
2026-04-25 13:58 -3.99061 -162.39171 27852 ft 487 kts 211°
2026-04-25 13:59 -4.01966 -162.40919 27857 ft 487 kts 211°
2026-04-25 13:59 -4.04876 -162.42670 27857 ft 487 kts 211°
2026-04-25 13:59 -4.07783 -162.44419 27853 ft 487 kts 211°
2026-04-25 13:59 -4.10687 -162.46167 27855 ft 487 kts 211°
2026-04-25 14:00 -4.13596 -162.47918 27850 ft 487 kts 211°
2026-04-25 14:00 -4.16501 -162.49666 27853 ft 487 kts 211°
2026-04-25 14:00 -4.19372 -162.51394 27853 ft 487 kts 211°
2026-04-25 14:00 -4.22276 -162.53143 27855 ft 487 kts 211°
2026-04-25 14:01 -4.25185 -162.54894 27852 ft 487 kts 211°
2026-04-25 14:01 -4.28090 -162.56643 27851 ft 487 kts 211°
2026-04-25 14:01 -4.30993 -162.58392 27851 ft 487 kts 211°
2026-04-25 14:01 -4.33893 -162.60138 27850 ft 487 kts 211°
2026-04-25 14:02 -4.36797 -162.61887 27856 ft 487 kts 211°
2026-04-25 14:02 -4.39670 -162.63618 27850 ft 487 kts 211°
2026-04-25 14:02 -4.42591 -162.65378 27857 ft 487 kts 211°
2026-04-25 14:02 -4.43574 -162.65970 27857 ft 487 kts 211°
2026-04-25 14:03 -4.48411 -162.68884 27854 ft 488 kts 211°
2026-04-25 14:03 -4.51322 -162.70638 27856 ft 488 kts 211°
2026-04-25 14:03 -4.54209 -162.72378 27853 ft 488 kts 211°
2026-04-25 14:03 -4.57122 -162.74134 27856 ft 488 kts 211°
2026-04-25 14:04 -4.60041 -162.75893 27854 ft 488 kts 211°
2026-04-25 14:04 -4.62947 -162.77645 27855 ft 488 kts 211°
2026-04-25 14:04 -4.65856 -162.79399 27854 ft 488 kts 211°
2026-04-25 14:04 -4.68734 -162.81134 27855 ft 488 kts 211°
2026-04-25 14:05 -4.71645 -162.82889 27858 ft 488 kts 211°
2026-04-25 14:05 -4.74558 -162.84647 27849 ft 488 kts 210°
2026-04-25 14:05 -4.77470 -162.86403 27851 ft 488 kts 210°
2026-04-25 14:05 -4.80386 -162.88162 27858 ft 489 kts 210°
2026-04-25 14:06 -4.83304 -162.89922 27858 ft 489 kts 210°
2026-04-25 14:06 -4.86228 -162.91686 27859 ft 489 kts 210°
2026-04-25 14:06 -4.89115 -162.93428 27859 ft 490 kts 210°
2026-04-25 14:06 -4.92038 -162.95193 27856 ft 490 kts 210°
2026-04-25 14:07 -4.94961 -162.96957 27855 ft 490 kts 210°
2026-04-25 14:07 -4.97882 -162.98720 27858 ft 490 kts 210°
2026-04-25 14:07 -5.00761 -163.00549 27855 ft 490 kts 214°
2026-04-25 14:07 -5.03473 -163.02620 27862 ft 490 kts 218°
2026-04-25 14:08 -5.06145 -163.04752 27865 ft 490 kts 218°
2026-04-25 14:08 -5.08811 -163.06888 27861 ft 491 kts 218°
2026-04-25 14:08 -5.11486 -163.09030 27853 ft 491 kts 218°
2026-04-25 14:08 -5.14129 -163.11137 27854 ft 492 kts 217°
2026-04-25 14:09 -5.16819 -163.13273 27860 ft 492 kts 217°
2026-04-25 14:09 -5.19510 -163.15404 27859 ft 493 kts 217°
2026-04-25 14:09 -5.22214 -163.17540 27863 ft 493 kts 217°
2026-04-25 14:09 -5.23124 -163.18259 27859 ft 494 kts 217°
2026-04-25 14:10 -5.27618 -163.21807 27855 ft 494 kts 217°
2026-04-25 14:10 -5.30317 -163.23939 27858 ft 494 kts 217°
2026-04-25 14:10 -5.33029 -163.26082 27859 ft 494 kts 217°
2026-04-25 14:10 -5.35698 -163.28191 27856 ft 494 kts 217°
2026-04-25 14:11 -5.38398 -163.30325 27859 ft 494 kts 217°
2026-04-25 14:11 -5.41098 -163.32460 27851 ft 494 kts 217°
2026-04-25 14:11 -5.43799 -163.34596 27856 ft 494 kts 217°
2026-04-25 14:11 -5.46504 -163.36735 27853 ft 494 kts 217°
2026-04-25 14:12 -5.49200 -163.38867 27862 ft 494 kts 217°
2026-04-25 14:12 -5.51908 -163.41009 27856 ft 495 kts 217°
2026-04-25 14:12 -5.54613 -163.43149 27860 ft 495 kts 217°
2026-04-25 14:12 -5.57322 -163.45292 27862 ft 495 kts 217°
2026-04-25 14:13 -5.60031 -163.47436 27856 ft 496 kts 217°
2026-04-25 14:13 -5.62740 -163.49580 27856 ft 496 kts 217°
2026-04-25 14:13 -5.65427 -163.51707 27856 ft 496 kts 217°
2026-04-25 14:13 -5.68144 -163.53857 27857 ft 496 kts 217°
2026-04-25 14:14 -5.70857 -163.56005 27857 ft 496 kts 217°
2026-04-25 14:14 -5.73571 -163.58154 27861 ft 497 kts 217°
2026-04-25 14:14 -5.76288 -163.60305 27861 ft 496 kts 217°
2026-04-25 14:14 -5.78082 -163.61726 27859 ft 496 kts 217°
2026-04-25 14:15 -5.81676 -163.64573 27859 ft 496 kts 217°
2026-04-25 14:15 -5.82592 -163.65299 27850 ft 496 kts 217°
2026-04-25 14:15 -5.87104 -163.68874 27847 ft 497 kts 217°
2026-04-25 14:15 -5.88906 -163.70301 27853 ft 497 kts 217°
2026-04-25 14:16 -5.91622 -163.72453 27863 ft 498 kts 217°
2026-04-25 14:16 -5.94343 -163.74609 27856 ft 498 kts 217°
2026-04-25 14:16 -5.97063 -163.76765 27857 ft 499 kts 217°
2026-04-25 14:16 -5.99791 -163.78928 27859 ft 499 kts 217°
2026-04-25 14:17 -6.02518 -163.81090 27850 ft 499 kts 217°
2026-04-25 14:17 -6.05251 -163.83257 27853 ft 499 kts 217°
2026-04-25 14:17 -6.07975 -163.85417 27853 ft 500 kts 217°
2026-04-25 14:17 -6.10710 -163.87587 27853 ft 500 kts 217°
2026-04-25 14:18 -6.13438 -163.89751 27861 ft 499 kts 217°
2026-04-25 14:18 -6.16132 -163.91888 27857 ft 499 kts 217°
2026-04-25 14:18 -6.18861 -163.94054 27852 ft 499 kts 217°
2026-04-25 14:18 -6.21584 -163.96215 27853 ft 499 kts 217°
2026-04-25 14:19 -6.24310 -163.98379 27849 ft 499 kts 216°
2026-04-25 14:19 -6.27033 -164.00540 27849 ft 499 kts 216°
2026-04-25 14:19 -6.29764 -164.02708 27852 ft 499 kts 216°
2026-04-25 14:19 -6.32489 -164.04872 27852 ft 500 kts 216°
2026-04-25 14:20 -6.35219 -164.07039 27858 ft 500 kts 216°
2026-04-25 14:20 -6.37028 -164.08477 27855 ft 501 kts 216°
2026-04-25 14:20 -6.40686 -164.11382 27853 ft 501 kts 216°
2026-04-25 14:20 -6.43426 -164.13558 27851 ft 501 kts 216°
2026-04-25 14:21 -6.46160 -164.15731 27852 ft 502 kts 216°
2026-04-25 14:21 -6.48907 -164.17914 27855 ft 502 kts 216°
2026-04-25 14:21 -6.51646 -164.20091 27853 ft 502 kts 216°
2026-04-25 14:21 -6.54351 -164.22242 27856 ft 502 kts 216°
2026-04-25 14:22 -6.57087 -164.24417 27858 ft 501 kts 216°
2026-04-25 14:22 -6.59830 -164.26599 27852 ft 501 kts 216°
2026-04-25 14:22 -6.62562 -164.28771 27856 ft 501 kts 216°
2026-04-25 14:22 -6.65297 -164.30947 27852 ft 500 kts 216°
2026-04-25 14:23 -6.68027 -164.33118 27859 ft 500 kts 216°
2026-04-25 14:23 -6.70755 -164.35288 27852 ft 500 kts 216°
2026-04-25 14:23 -6.73488 -164.37463 27853 ft 500 kts 216°
2026-04-25 14:23 -6.76215 -164.39633 27852 ft 500 kts 216°
2026-04-25 14:24 -6.78917 -164.41784 27855 ft 500 kts 216°
2026-04-25 14:24 -6.81648 -164.43958 27857 ft 501 kts 216°
2026-04-25 14:24 -6.84380 -164.46133 27855 ft 501 kts 216°
2026-04-25 14:24 -6.87116 -164.48311 27857 ft 502 kts 216°
2026-04-25 14:25 -6.89854 -164.50493 27857 ft 502 kts 216°
2026-04-25 14:25 -6.92593 -164.52674 27857 ft 502 kts 216°
2026-04-25 14:25 -6.95334 -164.54858 27857 ft 502 kts 216°
2026-04-25 14:25 -6.97148 -164.56304 27854 ft 502 kts 216°
2026-04-25 14:26 -7.00822 -164.59231 27853 ft 502 kts 216°
2026-04-25 14:26 -7.03564 -164.61417 27853 ft 502 kts 216°
2026-04-25 14:26 -7.06263 -164.63569 27851 ft 502 kts 216°
2026-04-25 14:26 -7.09009 -164.65758 27855 ft 502 kts 216°
2026-04-25 14:27 -7.11747 -164.67941 27856 ft 502 kts 216°
2026-04-25 14:27 -7.14487 -164.70126 27855 ft 502 kts 216°
2026-04-25 14:27 -7.17227 -164.72312 27856 ft 502 kts 216°
2026-04-25 14:27 -7.19969 -164.74500 27858 ft 502 kts 216°
2026-04-25 14:28 -7.22706 -164.76684 27852 ft 502 kts 216°
2026-04-25 14:28 -7.25411 -164.78843 27854 ft 502 kts 216°
2026-04-25 14:28 -7.28146 -164.81026 27856 ft 502 kts 216°
2026-04-25 14:28 -7.30885 -164.83212 27856 ft 501 kts 216°
2026-04-25 14:29 -7.33620 -164.85395 27860 ft 501 kts 216°
2026-04-25 14:29 -7.36354 -164.87579 27858 ft 501 kts 216°
2026-04-25 14:29 -7.39090 -164.89764 27857 ft 501 kts 216°
2026-04-25 14:29 -7.41819 -164.91944 27854 ft 501 kts 216°
2026-04-25 14:30 -7.44550 -164.94127 27855 ft 500 kts 216°
2026-04-25 14:30 -7.49977 -164.98463 27855 ft 500 kts 216°
2026-04-25 14:30 -7.52701 -165.00640 27858 ft 500 kts 216°
2026-04-25 14:31 -7.55426 -165.02819 27852 ft 500 kts 216°
2026-04-25 14:31 -7.58155 -165.05001 27854 ft 500 kts 216°
2026-04-25 14:31 -7.60879 -165.07179 27858 ft 500 kts 216°
2026-04-25 14:31 -7.63608 -165.09362 27859 ft 501 kts 216°
2026-04-25 14:32 -7.66338 -165.11546 27860 ft 501 kts 216°
2026-04-25 14:32 -7.69074 -165.13736 27859 ft 501 kts 216°
2026-04-25 14:32 -7.71816 -165.15930 27863 ft 502 kts 216°
2026-04-25 14:32 -7.74522 -165.18096 27860 ft 502 kts 216°
2026-04-25 14:33 -7.77255 -165.20284 27858 ft 502 kts 216°
2026-04-25 14:33 -7.79993 -165.22476 27856 ft 502 kts 216°
2026-04-25 14:33 -7.82728 -165.24666 27858 ft 502 kts 216°
2026-04-25 14:33 -7.85463 -165.26857 27857 ft 502 kts 216°
2026-04-25 14:34 -7.88193 -165.29044 27857 ft 502 kts 216°
2026-04-25 14:34 -7.90930 -165.31237 27859 ft 501 kts 216°
2026-04-25 14:34 -7.93662 -165.33427 27858 ft 501 kts 216°
2026-04-25 14:34 -7.96399 -165.35620 27855 ft 501 kts 216°
2026-04-25 14:35 -7.99094 -165.37781 27856 ft 501 kts 216°
2026-04-25 14:35 -8.01825 -165.39971 27856 ft 501 kts 216°
2026-04-25 14:35 -8.04555 -165.42160 27852 ft 501 kts 216°
2026-04-25 14:35 -8.07281 -165.44346 27851 ft 501 kts 217°
2026-04-25 14:36 -8.10013 -165.46538 27856 ft 501 kts 217°
2026-04-25 14:36 -8.12747 -165.48731 27854 ft 501 kts 217°
2026-04-25 14:36 -8.15478 -165.50923 27859 ft 502 kts 217°
2026-04-25 14:36 -8.18210 -165.53116 27858 ft 502 kts 217°
2026-04-25 14:37 -8.20940 -165.55308 27855 ft 502 kts 217°
2026-04-25 14:37 -8.23674 -165.57503 27859 ft 502 kts 217°
2026-04-25 14:37 -8.26405 -165.59697 27855 ft 502 kts 217°
2026-04-25 14:37 -8.29145 -165.61898 27857 ft 502 kts 217°
2026-04-25 14:38 -8.31886 -165.64100 27860 ft 502 kts 217°
2026-04-25 14:38 -8.34584 -165.66268 27855 ft 502 kts 217°
2026-04-25 14:38 -8.37320 -165.68466 27855 ft 502 kts 217°
2026-04-25 14:38 -8.40054 -165.70664 27855 ft 502 kts 217°
2026-04-25 14:39 -8.42794 -165.72867 27857 ft 502 kts 217°
2026-04-25 14:39 -8.45530 -165.75067 27856 ft 502 kts 217°
2026-04-25 14:39 -8.48262 -165.77265 27856 ft 502 kts 217°
2026-04-25 14:39 -8.50995 -165.79462 27860 ft 502 kts 217°
2026-04-25 14:40 -8.53729 -165.81663 27856 ft 502 kts 217°
2026-04-25 14:40 -8.56430 -165.83836 27857 ft 502 kts 217°
2026-04-25 14:40 -8.59168 -165.86040 27857 ft 502 kts 217°
2026-04-25 14:40 -8.61905 -165.88243 27857 ft 503 kts 217°
2026-04-25 14:41 -8.64638 -165.90444 27858 ft 503 kts 217°
2026-04-25 14:41 -8.67375 -165.92649 27858 ft 503 kts 217°
2026-04-25 14:41 -8.70121 -165.94861 27858 ft 503 kts 217°
2026-04-25 14:41 -8.72854 -165.97062 27858 ft 503 kts 217°
2026-04-25 14:42 -8.75590 -165.99267 27859 ft 503 kts 217°
2026-04-25 14:42 -8.77403 -166.00729 27860 ft 503 kts 217°
2026-04-25 14:42 -8.81065 -166.03680 27857 ft 503 kts 217°
2026-04-25 14:42 -8.83767 -166.05858 27860 ft 503 kts 217°
2026-04-25 14:43 -8.86505 -166.08067 27861 ft 503 kts 217°
2026-04-25 14:43 -8.89240 -166.10273 27864 ft 503 kts 217°
2026-04-25 14:43 -8.91978 -166.12481 27863 ft 503 kts 217°
2026-04-25 14:43 -8.94717 -166.14692 27864 ft 503 kts 217°
2026-04-25 14:44 -8.97455 -166.16902 27867 ft 503 kts 217°
2026-04-25 14:44 -9.00197 -166.19115 27865 ft 503 kts 217°
2026-04-25 14:44 -9.02932 -166.21323 27862 ft 503 kts 217°
2026-04-25 14:44 -9.05630 -166.23502 27863 ft 503 kts 217°
2026-04-25 14:45 -9.08376 -166.25720 27860 ft 503 kts 217°
2026-04-25 14:45 -9.11109 -166.27929 27862 ft 503 kts 217°
2026-04-25 14:45 -9.13842 -166.30137 27864 ft 503 kts 217°
2026-04-25 14:45 -9.16582 -166.32352 27864 ft 503 kts 217°
2026-04-25 14:46 -9.19320 -166.34564 27863 ft 503 kts 217°
2026-04-25 14:46 -9.22059 -166.36779 27860 ft 503 kts 217°
2026-04-25 14:46 -9.24794 -166.38991 27859 ft 503 kts 217°
2026-04-25 14:46 -9.27498 -166.41179 27877 ft 503 kts 217°
2026-04-25 14:47 -9.30236 -166.43393 27860 ft 504 kts 217°
2026-04-25 14:47 -9.32088 -166.44892 27862 ft 504 kts 217°
2026-04-25 14:47 -9.35714 -166.47827 27862 ft 504 kts 217°
2026-04-25 14:47 -9.38456 -166.50046 27867 ft 504 kts 217°
2026-04-25 14:48 -9.41197 -166.52266 27868 ft 504 kts 217°
2026-04-25 14:48 -9.43942 -166.54489 27863 ft 504 kts 217°
2026-04-25 14:48 -9.46683 -166.56709 27867 ft 504 kts 217°
2026-04-25 14:48 -9.49388 -166.58901 27865 ft 504 kts 217°
2026-04-25 14:49 -9.52135 -166.61128 27865 ft 504 kts 217°
2026-04-25 14:49 -9.54878 -166.63351 27865 ft 504 kts 217°
2026-04-25 14:49 -9.57620 -166.65574 27859 ft 504 kts 217°
2026-04-25 14:49 -9.60361 -166.67797 27858 ft 504 kts 217°
2026-04-25 14:50 -9.63103 -166.70021 27878 ft 505 kts 217°
2026-04-25 14:50 -9.65813 -166.72219 27861 ft 505 kts 217°
2026-04-25 14:50 -9.68560 -166.74448 27862 ft 506 kts 217°
2026-04-25 14:50 -9.71310 -166.76680 27876 ft 506 kts 217°
2026-04-25 14:51 -9.74060 -166.78913 27861 ft 506 kts 217°
2026-04-25 14:51 -9.76817 -166.81151 27877 ft 507 kts 217°
2026-04-25 14:51 -9.79571 -166.83389 27863 ft 507 kts 217°
2026-04-25 14:51 -9.82329 -166.85629 27862 ft 507 kts 217°
2026-04-25 14:52 -9.85085 -166.87868 27879 ft 507 kts 217°
2026-04-25 14:52 -9.87802 -166.90077 27856 ft 507 kts 217°
2026-04-25 14:52 -9.90588 -166.92342 27857 ft 506 kts 217°
2026-04-25 14:52 -9.92411 -166.93824 27864 ft 506 kts 217°
2026-04-25 14:53 -9.96053 -166.96787 27860 ft 506 kts 217°
2026-04-25 14:53 -9.98805 -166.99025 27862 ft 506 kts 217°
2026-04-25 14:53 -10.01557 -167.01252 27875 ft 506 kts 216°
2026-04-25 14:53 -10.04339 -167.03448 27865 ft 506 kts 216°
2026-04-25 14:54 -10.07136 -167.05624 27875 ft 506 kts 216°
2026-04-25 14:54 -10.09935 -167.07792 27864 ft 506 kts 216°
2026-04-25 14:54 -10.12737 -167.09962 27858 ft 506 kts 216°
2026-04-25 14:54 -10.15504 -167.12111 27875 ft 506 kts 216°
2026-04-25 14:55 -10.18303 -167.14291 27860 ft 507 kts 216°
2026-04-25 14:55 -10.21095 -167.16470 27875 ft 506 kts 216°
2026-04-25 14:55 -10.23895 -167.18660 27861 ft 507 kts 216°
2026-04-25 14:55 -10.26686 -167.20844 27863 ft 507 kts 216°
2026-04-25 14:56 -10.29479 -167.23030 27877 ft 507 kts 216°
2026-04-25 14:56 -10.32273 -167.25217 27855 ft 507 kts 216°
2026-04-25 14:56 -10.35066 -167.27404 27874 ft 506 kts 216°
2026-04-25 14:56 -10.37821 -167.29562 27873 ft 506 kts 216°
2026-04-25 14:57 -10.40613 -167.31748 27864 ft 506 kts 216°
2026-04-25 14:57 -10.43406 -167.33936 27875 ft 506 kts 216°
2026-04-25 14:57 -10.46197 -167.36123 27862 ft 506 kts 216°
2026-04-25 14:57 -10.48987 -167.38309 27875 ft 506 kts 216°
2026-04-25 14:58 -10.51778 -167.40497 27861 ft 506 kts 216°
2026-04-25 14:58 -10.54570 -167.42686 27873 ft 506 kts 216°
2026-04-25 14:58 -10.57365 -167.44877 27872 ft 506 kts 216°
2026-04-25 14:58 -10.60123 -167.47041 27872 ft 506 kts 216°
2026-04-25 14:59 -10.62908 -167.49226 27876 ft 506 kts 216°
2026-04-25 14:59 -10.65701 -167.51418 27860 ft 506 kts 216°
2026-04-25 14:59 -10.68493 -167.53610 27875 ft 506 kts 216°
2026-04-25 14:59 -10.71282 -167.55800 27863 ft 506 kts 216°
2026-04-25 15:00 -10.74082 -167.57999 27874 ft 506 kts 216°
2026-04-25 15:00 -10.76841 -167.60166 27880 ft 506 kts 216°
2026-04-25 15:00 -10.79631 -167.62358 27867 ft 506 kts 216°
2026-04-25 15:00 -10.82420 -167.64549 27878 ft 506 kts 216°
2026-04-25 15:01 -10.85209 -167.66742 27876 ft 506 kts 216°
2026-04-25 15:01 -10.87995 -167.68932 27862 ft 506 kts 216°
2026-04-25 15:01 -10.90781 -167.71124 27876 ft 506 kts 216°
2026-04-25 15:01 -10.93570 -167.73318 27866 ft 506 kts 216°
2026-04-25 15:02 -10.96358 -167.75512 27874 ft 506 kts 216°
2026-04-25 15:02 -10.99154 -167.77712 27858 ft 506 kts 216°
2026-04-25 15:02 -11.01942 -167.79906 27873 ft 506 kts 216°
2026-04-25 15:02 -11.04692 -167.82072 27873 ft 506 kts 216°
2026-04-25 15:03 -11.07481 -167.84269 27855 ft 506 kts 216°
2026-04-25 15:03 -11.10263 -167.86461 27877 ft 506 kts 216°
2026-04-25 15:03 -11.13047 -167.88655 27874 ft 506 kts 216°
2026-04-25 15:03 -11.15835 -167.90852 27873 ft 506 kts 216°
2026-04-25 15:04 -11.18620 -167.93047 27876 ft 506 kts 216°
2026-04-25 15:04 -11.21405 -167.95244 27873 ft 506 kts 216°
2026-04-25 15:04 -11.24159 -167.97416 27875 ft 506 kts 216°
2026-04-25 15:04 -11.26942 -167.99612 27874 ft 506 kts 216°
2026-04-25 15:05 -11.29730 -168.01812 27866 ft 506 kts 216°
2026-04-25 15:05 -11.32517 -168.04013 27875 ft 506 kts 216°
2026-04-25 15:05 -11.35297 -168.06207 27861 ft 506 kts 216°
2026-04-25 15:06 -11.40865 -168.10606 27870 ft 506 kts 216°
2026-04-25 15:06 -11.43657 -168.12812 27878 ft 506 kts 216°
2026-04-25 15:06 -11.46400 -168.14980 27880 ft 506 kts 216°
2026-04-25 15:06 -11.49187 -168.17183 27880 ft 506 kts 216°
2026-04-25 15:07 -11.51965 -168.19380 27877 ft 505 kts 216°
2026-04-25 15:07 -11.54751 -168.21584 27879 ft 505 kts 216°
2026-04-25 15:07 -11.57529 -168.23782 27880 ft 505 kts 216°
2026-04-25 15:07 -11.60302 -168.25977 27880 ft 505 kts 216°
2026-04-25 15:08 -11.62140 -168.27431 27879 ft 505 kts 216°
2026-04-25 15:08 -11.64922 -168.29634 27878 ft 505 kts 216°
2026-04-25 15:08 -11.67696 -168.31831 27879 ft 505 kts 216°
2026-04-25 15:08 -11.70472 -168.34030 27879 ft 505 kts 216°
2026-04-25 15:09 -11.74152 -168.36946 27878 ft 505 kts 216°
2026-04-25 15:09 -11.76033 -168.38437 27879 ft 505 kts 216°
2026-04-25 15:09 -11.81546 -168.42808 27876 ft 505 kts 216°
2026-04-25 15:10 -11.84321 -168.45010 27880 ft 505 kts 216°
2026-04-25 15:10 -11.87100 -168.47214 27881 ft 504 kts 216°
2026-04-25 15:10 -11.92643 -168.51614 27882 ft 504 kts 216°
2026-04-25 15:11 -11.95417 -168.53817 27886 ft 504 kts 216°
2026-04-25 15:11 -11.98185 -168.56015 27886 ft 504 kts 216°
2026-04-25 15:11 -12.00954 -168.58215 27884 ft 504 kts 216°
2026-04-25 15:12 -12.06460 -168.62591 27881 ft 504 kts 216°
2026-04-25 15:12 -12.09234 -168.64797 27882 ft 504 kts 216°
2026-04-25 15:12 -12.12006 -168.67001 27884 ft 504 kts 216°
2026-04-25 15:12 -12.13837 -168.68458 27889 ft 504 kts 216°
2026-04-25 15:13 -12.17540 -168.71405 27882 ft 504 kts 216°
2026-04-25 15:13 -12.23039 -168.75782 27888 ft 503 kts 216°
2026-04-25 15:13 -12.25807 -168.77987 27887 ft 503 kts 216°
2026-04-25 15:14 -12.28575 -168.80192 27889 ft 503 kts 216°
2026-04-25 15:14 -12.31338 -168.82394 27888 ft 503 kts 216°
2026-04-25 15:14 -12.34102 -168.84597 27887 ft 503 kts 216°
2026-04-25 15:14 -12.36861 -168.86796 27886 ft 503 kts 216°
2026-04-25 15:15 -12.39620 -168.88996 27885 ft 503 kts 216°
2026-04-25 15:15 -12.42378 -168.91197 27890 ft 503 kts 216°
2026-04-25 15:15 -12.45109 -168.93376 27891 ft 503 kts 216°
2026-04-25 15:15 -12.47869 -168.95579 27891 ft 503 kts 216°
2026-04-25 15:16 -12.50626 -168.97780 27890 ft 503 kts 216°
2026-04-25 15:16 -12.53384 -168.99982 27890 ft 503 kts 216°
2026-04-25 15:16 -12.58900 -169.04389 27895 ft 502 kts 216°
2026-04-25 15:17 -12.64403 -169.08789 27892 ft 502 kts 216°
2026-04-25 15:17 -12.67158 -169.10993 27893 ft 502 kts 216°
2026-04-25 15:17 -12.69916 -169.13198 27896 ft 501 kts 216°
2026-04-25 15:18 -12.72636 -169.15375 27894 ft 501 kts 216°
2026-04-25 15:18 -12.78139 -169.19780 27893 ft 501 kts 216°
2026-04-25 15:18 -12.80896 -169.21988 27894 ft 501 kts 216°
2026-04-25 15:19 -12.83647 -169.24192 27896 ft 501 kts 216°
2026-04-25 15:19 -12.85469 -169.25652 27896 ft 501 kts 216°
2026-04-25 15:19 -12.89147 -169.28600 27896 ft 502 kts 216°
2026-04-25 15:19 -12.91898 -169.30806 27894 ft 502 kts 216°
2026-04-25 15:20 -12.94645 -169.33009 27895 ft 502 kts 216°
2026-04-25 15:20 -12.97395 -169.35216 27897 ft 502 kts 216°
2026-04-25 15:20 -13.00116 -169.37399 27895 ft 502 kts 216°
2026-04-25 15:20 -13.02869 -169.39610 27895 ft 502 kts 216°
2026-04-25 15:21 -13.05620 -169.41818 27895 ft 502 kts 216°
2026-04-25 15:21 -13.08367 -169.44026 27897 ft 502 kts 216°
2026-04-25 15:21 -13.11117 -169.46236 27896 ft 502 kts 216°
2026-04-25 15:21 -13.13868 -169.48447 27896 ft 502 kts 216°
2026-04-25 15:22 -13.16623 -169.50661 27898 ft 502 kts 216°
2026-04-25 15:22 -13.19371 -169.52873 27897 ft 502 kts 216°
2026-04-25 15:22 -13.22130 -169.55097 27895 ft 502 kts 216°
2026-04-25 15:22 -13.24873 -169.57310 27896 ft 502 kts 216°
2026-04-25 15:23 -13.27621 -169.59528 27895 ft 502 kts 216°
2026-04-25 15:23 -13.30374 -169.61750 27894 ft 502 kts 216°
2026-04-25 15:23 -13.33090 -169.63943 27899 ft 502 kts 217°
2026-04-25 15:23 -13.35834 -169.66159 27899 ft 502 kts 216°
2026-04-25 15:24 -13.38581 -169.68378 27897 ft 503 kts 216°
2026-04-25 15:24 -13.41336 -169.70604 27897 ft 503 kts 216°
2026-04-25 15:24 -13.44083 -169.72825 27899 ft 503 kts 216°
2026-04-25 15:24 -13.45942 -169.74327 27900 ft 503 kts 216°
2026-04-25 15:25 -13.49586 -169.77274 27897 ft 503 kts 216°
2026-04-25 15:25 -13.52343 -169.79505 27897 ft 503 kts 216°
2026-04-25 15:25 -13.55090 -169.81728 27900 ft 503 kts 216°
2026-04-25 15:25 -13.57843 -169.83956 27903 ft 503 kts 217°
2026-04-25 15:26 -13.60597 -169.86186 27901 ft 503 kts 217°
2026-04-25 15:26 -13.63352 -169.88419 27900 ft 503 kts 216°
2026-04-25 15:26 -13.66074 -169.90623 27900 ft 503 kts 217°
2026-04-25 15:26 -13.68825 -169.92853 27903 ft 503 kts 217°
2026-04-25 15:27 -13.71583 -169.95089 27905 ft 503 kts 217°
2026-04-25 15:27 -13.74330 -169.97317 27900 ft 503 kts 217°
2026-04-25 15:27 -13.79836 -170.01785 27903 ft 503 kts 217°
2026-04-25 15:28 -13.82594 -170.04023 27903 ft 503 kts 217°
2026-04-25 15:28 -13.85308 -170.06227 27900 ft 503 kts 217°
2026-04-25 15:28 -13.88055 -170.08458 27899 ft 503 kts 217°
2026-04-25 15:28 -13.90807 -170.10694 27902 ft 503 kts 217°
2026-04-25 15:29 -13.93565 -170.12935 27901 ft 503 kts 217°
2026-04-25 15:29 -13.96313 -170.15170 27902 ft 503 kts 217°
2026-04-25 15:29 -13.99063 -170.17406 27900 ft 503 kts 217°
2026-04-25 15:29 -14.01808 -170.19640 27898 ft 504 kts 217°
2026-04-25 15:30 -14.04567 -170.21884 27902 ft 504 kts 217°
2026-04-25 15:30 -14.07323 -170.24128 27907 ft 504 kts 217°
2026-04-25 15:30 -14.10041 -170.26341 27907 ft 505 kts 217°
2026-04-25 15:30 -14.12803 -170.28591 27903 ft 505 kts 217°
2026-04-25 15:31 -14.15560 -170.30838 27902 ft 506 kts 217°
2026-04-25 15:31 -14.18322 -170.33088 27913 ft 506 kts 217°
2026-04-25 15:31 -14.21079 -170.35336 27914 ft 505 kts 217°
2026-04-25 15:31 -14.23841 -170.37589 27907 ft 505 kts 217°
2026-04-25 15:32 -14.26601 -170.39841 27905 ft 505 kts 217°
2026-04-25 15:32 -14.29369 -170.42100 27907 ft 506 kts 217°
2026-04-25 15:32 -14.32096 -170.44326 27909 ft 505 kts 217°
2026-04-25 15:33 -14.37605 -170.48825 27909 ft 505 kts 217°
2026-04-25 15:33 -14.40363 -170.51080 27909 ft 505 kts 217°
2026-04-25 15:33 -14.43120 -170.53333 27914 ft 505 kts 217°
2026-04-25 15:33 -14.45880 -170.55589 27917 ft 505 kts 217°
2026-04-25 15:34 -14.48636 -170.57843 27915 ft 505 kts 217°
2026-04-25 15:34 -14.51383 -170.60092 27909 ft 504 kts 217°
2026-04-25 15:34 -14.54131 -170.62341 27908 ft 504 kts 217°
2026-04-25 15:34 -14.55956 -170.63835 27908 ft 504 kts 217°
2026-04-25 15:35 -14.62340 -170.69064 27909 ft 503 kts 217°
2026-04-25 15:35 -14.65087 -170.71316 27908 ft 503 kts 217°
2026-04-25 15:35 -14.67840 -170.73574 27908 ft 504 kts 217°
2026-04-25 15:36 -14.73337 -170.78081 27909 ft 504 kts 217°
2026-04-25 15:36 -14.76085 -170.80337 27905 ft 504 kts 217°
2026-04-25 15:36 -14.78800 -170.82566 27907 ft 505 kts 217°
2026-04-25 15:37 -14.81554 -170.84828 27909 ft 506 kts 217°
2026-04-25 15:37 -14.84309 -170.87091 27916 ft 506 kts 217°
2026-04-25 15:37 -14.87071 -170.89361 27917 ft 506 kts 218°
2026-04-25 15:37 -14.89829 -170.91629 27901 ft 506 kts 217°
2026-04-25 15:38 -14.92584 -170.93895 27902 ft 506 kts 217°
2026-04-25 15:38 -14.95340 -170.96163 27904 ft 506 kts 218°
2026-04-25 15:38 -14.98095 -170.98430 27908 ft 506 kts 218°
2026-04-25 15:38 -15.00873 -171.00660 27909 ft 505 kts 215°
2026-04-25 15:39 -15.03707 -171.02717 27904 ft 504 kts 213°
2026-04-25 15:39 -15.06606 -171.04766 27906 ft 504 kts 213°
2026-04-25 15:39 -15.09517 -171.06805 27906 ft 505 kts 213°
2026-04-25 15:39 -15.12425 -171.08843 27913 ft 505 kts 213°
2026-04-25 15:40 -15.15334 -171.10889 27912 ft 504 kts 213°
2026-04-25 15:40 -15.16317 -171.11582 27910 ft 504 kts 214°
2026-04-25 15:40 -15.21128 -171.14991 27906 ft 504 kts 214°
2026-04-25 15:40 -15.24015 -171.17044 27905 ft 504 kts 214°
2026-04-25 15:41 -15.26906 -171.19101 27907 ft 504 kts 214°
2026-04-25 15:41 -15.29794 -171.21158 27912 ft 504 kts 214°
2026-04-25 15:41 -15.32682 -171.23214 27913 ft 503 kts 214°
2026-04-25 15:41 -15.35565 -171.25268 27905 ft 503 kts 214°
2026-04-25 15:42 -15.38450 -171.27324 27904 ft 503 kts 214°
2026-04-25 15:42 -15.41299 -171.29354 27905 ft 503 kts 214°
2026-04-25 15:42 -15.44189 -171.31414 27911 ft 504 kts 214°
2026-04-25 15:42 -15.47080 -171.33475 27909 ft 504 kts 214°
2026-04-25 15:43 -15.49963 -171.35531 27916 ft 503 kts 214°
2026-04-25 15:43 -15.52853 -171.37593 27907 ft 504 kts 214°
2026-04-25 15:43 -15.55740 -171.39654 27906 ft 504 kts 214°
2026-04-25 15:43 -15.58628 -171.41716 27908 ft 504 kts 214°
2026-04-25 15:44 -15.61515 -171.43778 27911 ft 504 kts 214°
2026-04-25 15:44 -15.64405 -171.45843 27911 ft 504 kts 214°
2026-04-25 15:44 -15.67296 -171.47909 27911 ft 503 kts 214°
2026-04-25 15:44 -15.70187 -171.49976 27907 ft 503 kts 214°
2026-04-25 15:45 -15.73028 -171.52008 27910 ft 503 kts 214°
2026-04-25 15:45 -15.75913 -171.54073 27913 ft 504 kts 214°
2026-04-25 15:45 -15.78807 -171.56144 27913 ft 504 kts 214°
2026-04-25 15:45 -15.79785 -171.56844 27911 ft 504 kts 214°
2026-04-25 15:46 -15.84576 -171.60276 27910 ft 503 kts 214°
2026-04-25 15:46 -15.87464 -171.62345 27908 ft 503 kts 214°
2026-04-25 15:46 -15.90348 -171.64412 27908 ft 503 kts 215°
2026-04-25 15:46 -15.93198 -171.66456 27912 ft 503 kts 215°
2026-04-25 15:47 -15.96085 -171.68526 27910 ft 504 kts 215°
2026-04-25 15:47 -15.98974 -171.70600 27917 ft 504 kts 214°
2026-04-25 15:47 -16.01863 -171.72674 27913 ft 504 kts 215°
2026-04-25 15:47 -16.04759 -171.74753 27912 ft 504 kts 215°
2026-04-25 15:48 -16.07652 -171.76830 27909 ft 505 kts 215°
2026-04-25 15:48 -16.10544 -171.78909 27916 ft 505 kts 215°
2026-04-25 15:48 -16.13436 -171.80988 27915 ft 506 kts 215°
2026-04-25 15:48 -16.16301 -171.83048 27914 ft 505 kts 215°
2026-04-25 15:49 -16.19191 -171.85127 27913 ft 505 kts 215°
2026-04-25 15:49 -16.22088 -171.87212 27916 ft 504 kts 215°
2026-04-25 15:49 -16.24975 -171.89290 27914 ft 504 kts 215°
2026-04-25 15:49 -16.27863 -171.91371 27920 ft 504 kts 215°
2026-04-25 15:50 -16.30712 -171.93424 27922 ft 504 kts 215°
2026-04-25 15:50 -16.33599 -171.95505 27925 ft 503 kts 215°
2026-04-25 15:50 -16.36478 -171.97580 27917 ft 503 kts 215°
2026-04-25 15:50 -16.39357 -171.99657 27919 ft 503 kts 215°
2026-04-25 15:51 -16.42185 -172.01804 27916 ft 503 kts 219°
2026-04-25 15:51 -16.43104 -172.02577 27914 ft 503 kts 220°
2026-04-25 15:51 -16.47544 -172.06503 27918 ft 503 kts 221°
2026-04-25 15:51 -16.50175 -172.08894 27929 ft 502 kts 221°
2026-04-25 15:52 -16.52812 -172.11291 27921 ft 503 kts 221°
2026-04-25 15:52 -16.55459 -172.13683 27925 ft 503 kts 221°
2026-04-25 15:52 -16.58111 -172.16063 27926 ft 503 kts 221°
2026-04-25 15:52 -16.60772 -172.18440 27925 ft 503 kts 221°
2026-04-25 15:53 -16.63399 -172.20779 27926 ft 503 kts 221°
2026-04-25 15:53 -16.66065 -172.23150 27925 ft 502 kts 221°
2026-04-25 15:53 -16.68728 -172.25517 27924 ft 502 kts 221°
2026-04-25 15:53 -16.71387 -172.27881 27924 ft 502 kts 221°
2026-04-25 15:54 -16.74048 -172.30251 27927 ft 502 kts 221°
2026-04-25 15:54 -16.76707 -172.32620 27928 ft 502 kts 221°
2026-04-25 15:54 -16.79363 -172.34988 27927 ft 502 kts 221°
2026-04-25 15:54 -16.81982 -172.37324 27922 ft 502 kts 221°
2026-04-25 15:55 -16.84642 -172.39698 27926 ft 502 kts 221°
2026-04-25 15:55 -16.87301 -172.42070 27920 ft 502 kts 221°
2026-04-25 15:55 -16.89964 -172.44450 27927 ft 502 kts 221°
2026-04-25 15:55 -16.92625 -172.46827 27934 ft 502 kts 221°
2026-04-25 15:56 -16.95242 -172.49165 27930 ft 502 kts 222°
2026-04-25 15:56 -16.97896 -172.51538 27924 ft 502 kts 221°
2026-04-25 15:56 -17.00548 -172.53909 27922 ft 502 kts 221°
2026-04-25 15:56 -17.03207 -172.56289 27927 ft 502 kts 221°
2026-04-25 15:57 -17.05859 -172.58663 27933 ft 502 kts 221°
2026-04-25 15:57 -17.08514 -172.61040 27933 ft 501 kts 221°
2026-04-25 15:57 -17.10265 -172.62609 27931 ft 501 kts 222°
2026-04-25 15:57 -17.13810 -172.65785 27931 ft 501 kts 222°
2026-04-25 15:58 -17.16423 -172.68126 27930 ft 502 kts 222°
2026-04-25 15:58 -17.19073 -172.70504 27936 ft 501 kts 222°
2026-04-25 15:58 -17.21720 -172.72878 27934 ft 502 kts 221°
2026-04-25 15:58 -17.24367 -172.75255 27931 ft 501 kts 221°
2026-04-25 15:59 -17.26159 -172.76862 27927 ft 502 kts 222°
2026-04-25 15:59 -17.28777 -172.79213 27933 ft 501 kts 222°
2026-04-25 15:59 -17.31427 -172.81593 27932 ft 500 kts 223°
2026-04-25 15:59 -17.34072 -172.83971 27934 ft 499 kts 222°
2026-04-25 16:00 -17.36709 -172.86342 27932 ft 499 kts 222°
2026-04-25 16:00 -17.38455 -172.87914 27934 ft 498 kts 222°
2026-04-25 16:00 -17.41936 -172.91045 27935 ft 497 kts 222°
2026-04-25 16:00 -17.44563 -172.93410 27937 ft 497 kts 223°
2026-04-25 16:01 -17.47189 -172.95775 27938 ft 498 kts 223°
2026-04-25 16:01 -17.49818 -172.98144 27938 ft 498 kts 222°
2026-04-25 16:01 -17.52446 -173.00513 27935 ft 498 kts 222°
2026-04-25 16:01 -17.55076 -173.02885 27936 ft 498 kts 222°
2026-04-25 16:02 -17.57703 -173.05253 27936 ft 498 kts 222°
2026-04-25 16:02 -17.60299 -173.07595 27936 ft 499 kts 223°
2026-04-25 16:02 -17.62931 -173.09970 27939 ft 499 kts 223°
2026-04-25 16:02 -17.65557 -173.12343 27945 ft 498 kts 223°
2026-04-25 16:03 -17.68178 -173.14711 27935 ft 497 kts 222°
2026-04-25 16:03 -17.70793 -173.17074 27932 ft 496 kts 222°
2026-04-25 16:03 -17.73399 -173.19430 27932 ft 495 kts 223°
2026-04-25 16:03 -17.76006 -173.21787 27933 ft 494 kts 223°
2026-04-25 16:04 -17.78612 -173.24145 27938 ft 493 kts 223°
2026-04-25 16:04 -17.81209 -173.26497 27939 ft 493 kts 223°
2026-04-25 16:04 -17.83803 -173.28846 27941 ft 493 kts 222°
2026-04-25 16:04 -17.86401 -173.31201 27940 ft 493 kts 223°
2026-04-25 16:05 -17.89007 -173.33562 27938 ft 494 kts 223°
2026-04-25 16:05 -17.91611 -173.35922 27940 ft 494 kts 223°
2026-04-25 16:05 -17.96817 -173.40646 27940 ft 494 kts 223°
2026-04-25 16:06 -17.99386 -173.42979 27940 ft 495 kts 223°
2026-04-25 16:06 -18.01994 -173.45347 27940 ft 495 kts 222°
2026-04-25 16:06 -18.04602 -173.47716 27939 ft 495 kts 223°
2026-04-25 16:06 -18.07210 -173.50087 27940 ft 495 kts 223°
2026-04-25 16:07 -18.09815 -173.52454 27940 ft 495 kts 223°
2026-04-25 16:07 -18.11537 -173.54021 27940 ft 495 kts 223°
2026-04-25 16:07 -18.15021 -173.57192 27940 ft 495 kts 223°
2026-04-25 16:07 -18.17624 -173.59562 27940 ft 495 kts 223°
2026-04-25 16:08 -18.20231 -173.61936 27938 ft 495 kts 223°
2026-04-25 16:08 -18.22833 -173.64307 27940 ft 495 kts 223°
2026-04-25 16:08 -18.25404 -173.66650 27940 ft 495 kts 223°
2026-04-25 16:08 -18.28001 -173.69018 27940 ft 495 kts 223°
2026-04-25 16:09 -18.30605 -173.71394 27944 ft 495 kts 223°
2026-04-25 16:09 -18.33202 -173.73765 27951 ft 495 kts 223°
2026-04-25 16:09 -18.35802 -173.76138 27949 ft 494 kts 223°
2026-04-25 16:09 -18.38398 -173.78509 27949 ft 493 kts 223°
2026-04-25 16:10 -18.40987 -173.80875 27953 ft 492 kts 223°
2026-04-25 16:10 -18.43578 -173.83243 27955 ft 492 kts 223°
2026-04-25 16:10 -18.46157 -173.85603 27958 ft 491 kts 223°
2026-04-25 16:10 -18.48742 -173.87968 27963 ft 491 kts 223°
2026-04-25 16:11 -18.51290 -173.90301 27967 ft 491 kts 223°
2026-04-25 16:11 -18.53868 -173.92662 27967 ft 491 kts 223°
2026-04-25 16:11 -18.56449 -173.95026 27968 ft 491 kts 223°
2026-04-25 16:11 -18.59061 -173.97353 27968 ft 492 kts 220°
2026-04-25 16:12 -18.61854 -173.99463 27969 ft 493 kts 217°
2026-04-25 16:12 -18.64694 -174.01494 27969 ft 493 kts 216°
2026-04-25 16:12 -18.67528 -174.03503 27965 ft 494 kts 216°
2026-04-25 16:12 -18.69360 -174.04803 27970 ft 494 kts 216°
2026-04-25 16:13 -18.73162 -174.07515 27963 ft 493 kts 217°
2026-04-25 16:13 -18.75791 -174.09401 27955 ft 492 kts 217°
2026-04-25 16:13 -18.78677 -174.11481 27951 ft 492 kts 217°
2026-04-25 16:13 -18.81476 -174.13505 28156 ft 495 kts 217°
2026-04-25 16:14 -18.84320 -174.15564 28525 ft 496 kts 217°
2026-04-25 16:14 -18.87167 -174.17626 28910 ft 498 kts 217°
2026-04-25 16:14 -18.90030 -174.19701 29245 ft 500 kts 217°
2026-04-25 16:14 -18.92903 -174.21783 29535 ft 502 kts 217°
2026-04-25 16:15 -18.95795 -174.23879 29811 ft 505 kts 217°
2026-04-25 16:15 -18.98697 -174.25983 30054 ft 507 kts 217°
2026-04-25 16:15 -19.01602 -174.28089 30252 ft 507 kts 217°
2026-04-25 16:15 -19.04516 -174.30202 30556 ft 507 kts 218°
2026-04-25 16:16 -19.07415 -174.32305 30948 ft 505 kts 218°
2026-04-25 16:16 -19.10307 -174.34403 31357 ft 502 kts 218°
2026-04-25 16:16 -19.13142 -174.36461 31768 ft 500 kts 218°
2026-04-25 16:16 -19.16034 -174.38563 32171 ft 498 kts 218°
2026-04-25 16:17 -19.18851 -174.40611 32537 ft 497 kts 218°
2026-04-25 16:17 -19.21706 -174.42689 32897 ft 495 kts 218°
2026-04-25 16:17 -19.24542 -174.44753 33261 ft 494 kts 218°
2026-04-25 16:17 -19.27372 -174.46813 33648 ft 492 kts 217°
2026-04-25 16:18 -19.30189 -174.48865 33998 ft 491 kts 217°
2026-04-25 16:18 -19.31139 -174.49557 34107 ft 491 kts 217°
2026-04-25 16:18 -19.35808 -174.52961 34592 ft 489 kts 217°
2026-04-25 16:18 -19.38610 -174.55004 34875 ft 488 kts 217°
2026-04-25 16:19 -19.41403 -174.57042 35169 ft 487 kts 217°
2026-04-25 16:19 -19.44190 -174.59076 35471 ft 486 kts 217°
2026-04-25 16:19 -19.46967 -174.61104 35749 ft 485 kts 217°
2026-04-25 16:20 -19.52514 -174.65158 35927 ft 489 kts 217°
2026-04-25 16:20 -19.55317 -174.67207 35941 ft 489 kts 217°
2026-04-25 16:21 -19.63633 -174.73290 35946 ft 480 kts 217°
2026-04-25 16:21 -19.69131 -174.77318 35951 ft 479 kts 217°
2026-04-25 16:22 -19.74618 -174.81341 35965 ft 479 kts 218°
2026-04-25 16:22 -19.80073 -174.85345 35954 ft 478 kts 218°
2026-04-25 16:23 -19.85547 -174.89366 35949 ft 478 kts 218°
2026-04-25 16:23 -19.91009 -174.93381 35950 ft 477 kts 218°
2026-04-25 16:24 -19.96476 -174.97404 35951 ft 477 kts 218°
2026-04-25 16:24 -20.02048 -175.01268 35953 ft 480 kts 212°
2026-04-25 16:25 -20.07927 -175.04645 35972 ft 481 kts 212°
2026-04-25 16:25 -20.13813 -175.07990 35962 ft 484 kts 212°
2026-04-25 16:26 -20.19766 -175.11405 35964 ft 487 kts 212°
2026-04-25 16:26 -20.25753 -175.14863 35959 ft 490 kts 212°
2026-04-25 16:27 -20.31752 -175.18337 35956 ft 491 kts 212°
2026-04-25 16:27 -20.37765 -175.21821 35952 ft 492 kts 212°
2026-04-25 16:28 -20.43774 -175.25305 35963 ft 491 kts 212°
2026-04-25 16:28 -20.49740 -175.28766 35951 ft 489 kts 212°
2026-04-25 16:29 -20.55709 -175.32233 35953 ft 488 kts 212°
2026-04-25 16:29 -20.61660 -175.35693 35953 ft 486 kts 212°
2026-04-25 16:30 -20.67593 -175.39145 35957 ft 485 kts 212°
2026-04-25 16:30 -20.73522 -175.42599 35965 ft 485 kts 212°
2026-04-25 16:31 -20.79477 -175.46071 35976 ft 491 kts 213°
2026-04-25 16:31 -20.85494 -175.49586 35965 ft 498 kts 213°
2026-04-25 16:32 -20.91584 -175.53142 35957 ft 499 kts 213°
2026-04-25 16:32 -20.97690 -175.56709 35966 ft 499 kts 213°
2026-04-25 16:33 -21.03777 -175.60268 35964 ft 498 kts 213°
2026-04-25 16:33 -21.09839 -175.63818 35985 ft 496 kts 213°
2026-04-25 16:34 -21.15859 -175.67347 35967 ft 496 kts 213°
2026-04-25 16:34 -21.21912 -175.70900 35968 ft 496 kts 213°
2026-04-25 16:35 -21.27962 -175.74454 35965 ft 496 kts 213°
2026-04-25 16:35 -21.34017 -175.78013 35966 ft 496 kts 213°
2026-04-25 16:36 -21.40074 -175.81578 35979 ft 497 kts 213°
2026-04-25 16:36 -21.46142 -175.85152 35967 ft 497 kts 213°
2026-04-25 16:37 -21.52166 -175.88702 35965 ft 497 kts 213°
2026-04-25 16:37 -21.58235 -175.92284 35983 ft 498 kts 213°
2026-04-25 16:38 -21.64308 -175.95871 35966 ft 498 kts 213°
2026-04-25 16:38 -21.70376 -175.99459 35963 ft 498 kts 213°
2026-04-25 16:39 -21.76444 -176.03050 35976 ft 498 kts 214°
2026-04-25 16:39 -21.82500 -176.06636 35966 ft 495 kts 214°
2026-04-25 16:40 -21.88524 -176.10207 35965 ft 493 kts 214°
2026-04-25 16:40 -21.94517 -176.13765 35970 ft 490 kts 214°
2026-04-25 16:41 -22.00447 -176.17288 35977 ft 489 kts 214°
2026-04-25 16:41 -22.09370 -176.22597 35985 ft 487 kts 214°
2026-04-25 16:42 -22.15300 -176.26128 35980 ft 486 kts 214°
2026-04-25 16:42 -22.21221 -176.29658 35976 ft 485 kts 214°
2026-04-25 16:43 -22.27091 -176.33161 35980 ft 484 kts 214°
2026-04-25 16:43 -22.32988 -176.36684 35981 ft 484 kts 214°
2026-04-25 16:44 -22.38886 -176.40211 35980 ft 485 kts 215°
2026-04-25 16:44 -22.44794 -176.43747 35993 ft 485 kts 215°
2026-04-25 16:45 -22.50702 -176.47286 35983 ft 486 kts 215°
2026-04-25 16:45 -22.56617 -176.50833 35986 ft 486 kts 215°
2026-04-25 16:46 -22.62526 -176.54380 35986 ft 486 kts 215°
2026-04-25 16:46 -22.66480 -176.56755 35991 ft 486 kts 215°
2026-04-25 16:47 -22.74351 -176.61488 35985 ft 486 kts 215°
2026-04-25 16:47 -22.80261 -176.65046 35991 ft 486 kts 215°
2026-04-25 16:48 -22.86133 -176.68584 35987 ft 485 kts 215°
2026-04-25 16:48 -22.92030 -176.72142 35989 ft 484 kts 215°
2026-04-25 16:49 -22.97921 -176.75699 35992 ft 484 kts 215°
2026-04-25 16:49 -23.02803 -176.78649 35990 ft 483 kts 215°
2026-04-25 16:50 -23.08680 -176.82205 36015 ft 483 kts 216°
2026-04-25 16:50 -23.14549 -176.85759 35997 ft 482 kts 216°
2026-04-25 16:51 -23.20405 -176.89309 35993 ft 482 kts 216°
2026-04-25 16:51 -23.25270 -176.92260 36000 ft 481 kts 216°
2026-04-25 16:52 -23.32057 -176.96383 36000 ft 481 kts 216°
2026-04-25 16:52 -23.37896 -176.99933 36002 ft 480 kts 216°
2026-04-25 16:53 -23.46641 -177.05258 36006 ft 480 kts 216°
2026-04-25 16:54 -23.52476 -177.08815 36006 ft 480 kts 216°
2026-04-25 16:54 -23.58306 -177.12372 36005 ft 480 kts 216°
2026-04-25 16:55 -23.64129 -177.15929 36008 ft 479 kts 216°
2026-04-25 16:55 -23.69909 -177.19463 36008 ft 479 kts 216°
2026-04-25 16:56 -23.75729 -177.23025 36017 ft 479 kts 217°
2026-04-25 16:56 -23.81554 -177.26595 36006 ft 479 kts 217°
2026-04-25 16:57 -23.87370 -177.30162 36009 ft 479 kts 217°
2026-04-25 16:57 -23.93151 -177.33711 36022 ft 478 kts 217°
2026-04-25 16:58 -23.98954 -177.37278 36011 ft 478 kts 217°
2026-04-25 16:58 -24.04757 -177.40848 36033 ft 478 kts 217°
2026-04-25 16:59 -24.10547 -177.44414 36021 ft 477 kts 217°
2026-04-25 16:59 -24.16330 -177.47980 36015 ft 476 kts 217°
2026-04-25 17:00 -24.22068 -177.51521 36015 ft 475 kts 217°
2026-04-25 17:00 -24.27828 -177.55080 36021 ft 475 kts 217°
2026-04-25 17:01 -24.33580 -177.58638 36023 ft 474 kts 217°
2026-04-25 17:01 -24.39338 -177.62203 36036 ft 474 kts 218°
2026-04-25 17:02 -24.45081 -177.65763 36025 ft 474 kts 218°
2026-04-25 17:02 -24.50824 -177.69327 36021 ft 474 kts 218°
2026-04-25 17:03 -24.56521 -177.72866 36025 ft 474 kts 218°
2026-04-25 17:03 -24.62264 -177.76436 36025 ft 474 kts 218°
2026-04-25 17:04 -24.68002 -177.80009 36025 ft 474 kts 218°
2026-04-25 17:04 -24.73737 -177.83583 36018 ft 474 kts 218°
2026-04-25 17:05 -24.79480 -177.87165 36026 ft 474 kts 218°
2026-04-25 17:05 -24.88101 -177.92550 36017 ft 475 kts 218°
2026-04-25 17:06 -24.93812 -177.96123 36026 ft 475 kts 218°
2026-04-25 17:06 -24.99559 -177.99722 36037 ft 475 kts 218°
2026-04-25 17:07 -25.05392 -178.03195 36049 ft 478 kts 216°
2026-04-25 17:07 -25.11321 -178.06527 36046 ft 478 kts 215°
2026-04-25 17:08 -25.17256 -178.09869 36061 ft 478 kts 216°
2026-04-25 17:08 -25.23175 -178.13240 36055 ft 478 kts 216°
2026-04-25 17:09 -25.29041 -178.16603 36050 ft 478 kts 216°
2026-04-25 17:09 -25.34945 -178.19995 36062 ft 478 kts 216°
2026-04-25 17:10 -25.40846 -178.23387 36054 ft 478 kts 216°
2026-04-25 17:10 -25.46748 -178.26782 36054 ft 478 kts 216°
2026-04-25 17:11 -25.52653 -178.30182 36058 ft 478 kts 216°
2026-04-25 17:11 -25.58559 -178.33586 36057 ft 478 kts 216°
2026-04-25 17:12 -25.64460 -178.36992 36082 ft 478 kts 216°
2026-04-25 17:12 -25.70320 -178.40378 36062 ft 478 kts 216°
2026-04-25 17:13 -25.75229 -178.43216 36062 ft 478 kts 216°
2026-04-25 17:13 -25.82113 -178.47202 36060 ft 477 kts 216°
2026-04-25 17:14 -25.88008 -178.50619 36061 ft 477 kts 216°
2026-04-25 17:14 -25.93889 -178.54033 36071 ft 477 kts 216°
2026-04-25 17:15 -25.99768 -178.57449 36073 ft 476 kts 217°
2026-04-25 17:15 -26.05633 -178.60860 36062 ft 476 kts 217°
2026-04-25 17:16 -26.11455 -178.64251 36061 ft 475 kts 217°
2026-04-25 17:16 -26.17307 -178.67663 36069 ft 474 kts 217°
2026-04-25 17:17 -26.23156 -178.71077 36074 ft 474 kts 217°
2026-04-25 17:17 -26.28994 -178.74488 36081 ft 474 kts 217°
2026-04-25 17:18 -26.34832 -178.77904 36075 ft 474 kts 217°
2026-04-25 17:18 -26.40662 -178.81319 36079 ft 473 kts 217°
2026-04-25 17:19 -26.46459 -178.84718 36079 ft 473 kts 217°
2026-04-25 17:19 -26.52283 -178.88137 36080 ft 473 kts 217°
2026-04-25 17:20 -26.58111 -178.91563 36097 ft 474 kts 218°
2026-04-25 17:20 -26.63948 -178.94998 36093 ft 474 kts 218°
2026-04-25 17:21 -26.69786 -178.98437 36082 ft 474 kts 218°
2026-04-25 17:21 -26.75623 -179.01879 36091 ft 474 kts 218°
2026-04-25 17:22 -26.80470 -179.04740 36092 ft 474 kts 218°
2026-04-25 17:22 -26.87284 -179.08768 36116 ft 474 kts 218°
2026-04-25 17:23 -26.93117 -179.12220 36094 ft 473 kts 218°
2026-04-25 17:23 -26.98898 -179.15645 36094 ft 473 kts 218°
2026-04-25 17:24 -27.04710 -179.19093 36095 ft 472 kts 218°
2026-04-25 17:24 -27.10511 -179.22538 36095 ft 472 kts 218°
2026-04-25 17:25 -27.16308 -179.25986 36105 ft 472 kts 218°
2026-04-25 17:25 -27.22122 -179.29448 36107 ft 471 kts 218°
2026-04-25 17:26 -27.27912 -179.32899 36102 ft 471 kts 218°
2026-04-25 17:26 -27.33701 -179.36354 36103 ft 470 kts 218°
2026-04-25 17:27 -27.39442 -179.39783 36104 ft 470 kts 218°
2026-04-25 17:27 -27.43302 -179.42092 36103 ft 470 kts 218°
2026-04-25 17:28 -27.50997 -179.46700 36111 ft 470 kts 218°
2026-04-25 17:28 -27.56762 -179.50156 36106 ft 469 kts 218°
2026-04-25 17:29 -27.62509 -179.53606 36110 ft 468 kts 218°
2026-04-25 17:29 -27.68216 -179.57036 36111 ft 467 kts 218°
2026-04-25 17:30 -27.73945 -179.60483 36114 ft 466 kts 218°
2026-04-25 17:30 -27.79663 -179.63929 36115 ft 466 kts 218°
2026-04-25 17:31 -27.85386 -179.67382 36115 ft 466 kts 218°
2026-04-25 17:31 -27.91109 -179.70839 36115 ft 466 kts 218°
2026-04-25 17:32 -27.96831 -179.74299 36115 ft 466 kts 218°
2026-04-25 17:32 -28.02556 -179.77766 36114 ft 467 kts 218°
2026-04-25 17:33 -28.08287 -179.81239 36140 ft 467 kts 219°
2026-04-25 17:33 -28.13985 -179.84697 36125 ft 467 kts 219°
2026-04-25 17:34 -28.19723 -179.88184 36122 ft 467 kts 219°
2026-04-25 17:34 -28.25450 -179.91668 36123 ft 467 kts 219°
2026-04-25 17:35 -28.31169 -179.95151 36125 ft 467 kts 219°
2026-04-25 17:35 -28.36896 -179.98644 36137 ft 466 kts 219°
2026-04-25 17:36 -28.42610 179.97867 36132 ft 466 kts 219°
2026-04-25 17:36 -28.48285 179.94398 36128 ft 465 kts 219°
2026-04-25 17:37 -28.53984 179.90910 36128 ft 465 kts 219°
2026-04-25 17:37 -28.59670 179.87425 36128 ft 464 kts 219°
2026-04-25 17:38 -28.63474 179.85091 36130 ft 464 kts 219°
2026-04-25 17:38 -28.71030 179.80448 36138 ft 463 kts 219°
2026-04-25 17:39 -28.76698 179.76962 36133 ft 462 kts 219°
2026-04-25 17:39 -28.82354 179.73479 36133 ft 461 kts 219°
2026-04-25 17:40 -28.87993 179.70002 36136 ft 460 kts 219°
2026-04-25 17:40 -28.93586 179.66548 36136 ft 460 kts 219°
2026-04-25 17:41 -28.99210 179.63070 36145 ft 459 kts 219°
2026-04-25 17:41 -29.04829 179.59591 36145 ft 459 kts 219°
2026-04-25 17:42 -29.10448 179.56109 36138 ft 459 kts 219°
2026-04-25 17:42 -29.15114 179.53213 36135 ft 459 kts 219°
2026-04-25 17:43 -29.20723 179.49729 36138 ft 459 kts 219°
2026-04-25 17:43 -29.26327 179.46243 36167 ft 458 kts 219°
2026-04-25 17:44 -29.31926 179.42757 36147 ft 457 kts 219°
2026-04-25 17:44 -29.37501 179.39282 36137 ft 455 kts 219°
2026-04-25 17:45 -29.42118 179.36400 36141 ft 454 kts 219°
2026-04-25 17:45 -29.48598 179.32350 36149 ft 452 kts 219°
2026-04-25 17:46 -29.54123 179.28890 36200 ft 452 kts 219°
2026-04-25 17:46 -29.59639 179.25433 36151 ft 451 kts 219°
2026-04-25 17:47 -29.65091 179.22013 36157 ft 448 kts 220°
2026-04-25 17:47 -29.70559 179.18578 36144 ft 446 kts 220°
2026-04-25 17:48 -29.78712 179.13446 36149 ft 445 kts 220°
2026-04-25 17:49 -29.84141 179.10023 36168 ft 445 kts 220°
2026-04-25 17:49 -29.89574 179.06593 36157 ft 445 kts 220°
2026-04-25 17:50 -29.95013 179.03156 36154 ft 446 kts 220°
2026-04-25 17:50 -30.00482 178.99733 36154 ft 450 kts 218°
2026-04-25 17:51 -30.06192 178.96658 36155 ft 454 kts 216°
2026-04-25 17:51 -30.11959 178.93648 36175 ft 455 kts 216°
2026-04-25 17:52 -30.17728 178.90623 36164 ft 455 kts 216°
2026-04-25 17:52 -30.23488 178.87578 36154 ft 455 kts 216°
2026-04-25 17:53 -30.29240 178.84526 36158 ft 455 kts 216°
2026-04-25 17:53 -30.34959 178.81485 36162 ft 455 kts 216°
2026-04-25 17:54 -30.40723 178.78416 36168 ft 456 kts 216°
2026-04-25 17:54 -30.46495 178.75339 36157 ft 457 kts 216°
2026-04-25 17:55 -30.52275 178.72254 36152 ft 457 kts 216°
2026-04-25 17:55 -30.58059 178.69165 36152 ft 457 kts 216°
2026-04-25 17:56 -30.63843 178.66070 36155 ft 458 kts 216°
2026-04-25 17:56 -30.69632 178.62969 36155 ft 457 kts 216°
2026-04-25 17:57 -30.75412 178.59869 36155 ft 457 kts 216°
2026-04-25 17:57 -30.81184 178.56769 36154 ft 457 kts 216°
2026-04-25 17:58 -30.86962 178.53661 36156 ft 457 kts 216°
2026-04-25 17:58 -30.92695 178.50573 36155 ft 457 kts 216°
2026-04-25 17:59 -30.98464 178.47462 36161 ft 457 kts 217°
2026-04-25 17:59 -31.04246 178.44338 36154 ft 458 kts 217°
2026-04-25 18:00 -31.10030 178.41209 36157 ft 459 kts 217°
2026-04-25 18:00 -31.15829 178.38070 36159 ft 459 kts 217°
2026-04-25 18:01 -31.21637 178.34921 36156 ft 460 kts 217°
2026-04-25 18:01 -31.27419 178.31782 36158 ft 461 kts 218°
2026-04-25 18:02 -31.33235 178.28620 36153 ft 461 kts 218°
2026-04-25 18:02 -31.39048 178.25457 36151 ft 460 kts 218°
2026-04-25 18:03 -31.44856 178.22291 36152 ft 460 kts 218°
2026-04-25 18:03 -31.50654 178.19126 36152 ft 459 kts 218°
2026-04-25 18:04 -31.56445 178.15960 36156 ft 459 kts 219°
2026-04-25 18:04 -31.62196 178.12810 36149 ft 459 kts 219°
2026-04-25 18:05 -31.67980 178.09639 36154 ft 458 kts 219°
2026-04-25 18:05 -31.73773 178.06459 36153 ft 458 kts 219°
2026-04-25 18:06 -31.79555 178.03280 36182 ft 459 kts 219°
2026-04-25 18:06 -31.85336 178.00098 36157 ft 458 kts 219°
2026-04-25 18:07 -31.91072 177.96938 36144 ft 457 kts 219°
2026-04-25 18:07 -31.96828 177.93761 36150 ft 456 kts 219°
2026-04-25 18:08 -32.02575 177.90585 36149 ft 455 kts 219°
2026-04-25 18:08 -32.08313 177.87407 36164 ft 455 kts 219°
2026-04-25 18:09 -32.14043 177.84230 36149 ft 455 kts 219°
2026-04-25 18:09 -32.19736 177.81071 36149 ft 454 kts 219°
2026-04-25 18:10 -32.25461 177.77889 36153 ft 454 kts 219°
2026-04-25 18:10 -32.31180 177.74704 36152 ft 454 kts 219°
2026-04-25 18:11 -32.36894 177.71519 36161 ft 454 kts 219°
2026-04-25 18:11 -32.42615 177.68326 36155 ft 454 kts 219°
2026-04-25 18:12 -32.48336 177.65129 36152 ft 454 kts 219°
2026-04-25 18:12 -32.54009 177.61953 36152 ft 454 kts 219°
2026-04-25 18:13 -32.59721 177.58751 36196 ft 454 kts 219°
2026-04-25 18:13 -32.65426 177.55549 36160 ft 452 kts 219°
2026-04-25 18:14 -32.73938 177.50766 36158 ft 449 kts 220°
2026-04-25 18:14 -32.79574 177.47591 36155 ft 447 kts 220°
2026-04-25 18:15 -32.85151 177.44444 36153 ft 446 kts 220°
2026-04-25 18:15 -32.90764 177.41272 36159 ft 446 kts 220°
2026-04-25 18:16 -32.96358 177.38107 36152 ft 445 kts 220°
2026-04-25 18:17 -33.04732 177.33361 36160 ft 444 kts 220°
2026-04-25 18:17 -33.10303 177.30196 36159 ft 444 kts 220°
2026-04-25 18:18 -33.15888 177.27019 36177 ft 445 kts 221°
2026-04-25 18:18 -33.21478 177.23837 36171 ft 444 kts 221°
2026-04-25 18:19 -33.27051 177.20662 36172 ft 444 kts 221°
2026-04-25 18:19 -33.32584 177.17504 36165 ft 443 kts 221°
2026-04-25 18:20 -33.38142 177.14325 36175 ft 442 kts 221°
2026-04-25 18:20 -33.43691 177.11148 36176 ft 442 kts 221°
2026-04-25 18:21 -33.49234 177.07969 36175 ft 442 kts 221°
2026-04-25 18:21 -33.54278 177.05072 36179 ft 442 kts 221°
2026-04-25 18:22 -33.59827 177.01880 36169 ft 442 kts 221°
2026-04-25 18:22 -33.65378 176.98684 36217 ft 442 kts 221°
2026-04-25 18:23 -33.70929 176.95483 36182 ft 442 kts 221°
2026-04-25 18:23 -33.76479 176.92279 36179 ft 443 kts 221°
2026-04-25 18:24 -33.82034 176.89065 36184 ft 443 kts 221°
2026-04-25 18:24 -33.87596 176.85844 36182 ft 444 kts 221°
2026-04-25 18:25 -33.93135 176.82630 36211 ft 445 kts 219°
2026-04-25 18:25 -33.98733 176.79376 36199 ft 448 kts 219°
2026-04-25 18:26 -34.04372 176.76098 36191 ft 450 kts 219°
2026-04-25 18:26 -34.10004 176.72774 36193 ft 450 kts 220°
2026-04-25 18:27 -34.15592 176.69354 36193 ft 450 kts 220°
2026-04-25 18:27 -34.21198 176.65900 36200 ft 454 kts 218°
2026-04-25 18:28 -34.26806 176.62455 36199 ft 456 kts 218°
2026-04-25 18:28 -34.32486 176.58972 36198 ft 459 kts 218°
2026-04-25 18:29 -34.41047 176.53719 36201 ft 460 kts 218°
2026-04-25 18:30 -34.52498 176.46667 36214 ft 463 kts 217°
2026-04-25 18:30 -34.58253 176.43116 36213 ft 464 kts 217°
2026-04-25 18:31 -34.64012 176.39556 36209 ft 465 kts 217°
2026-04-25 18:31 -34.69740 176.36009 36244 ft 466 kts 216°
2026-04-25 18:32 -34.74589 176.33000 36229 ft 468 kts 216°
2026-04-25 18:32 -34.81351 176.28800 36216 ft 470 kts 215°
2026-04-25 18:33 -34.87188 176.25170 36218 ft 472 kts 215°
2026-04-25 18:33 -34.92087 176.22118 36226 ft 472 kts 215°
2026-04-25 18:34 -34.97943 176.18463 36232 ft 474 kts 214°
2026-04-25 18:34 -35.03829 176.14784 36230 ft 476 kts 213°
2026-04-25 18:35 -35.09690 176.11116 36226 ft 477 kts 213°
2026-04-25 18:35 -35.15596 176.07414 36226 ft 477 kts 213°
2026-04-25 18:36 -35.21512 176.03697 36238 ft 478 kts 212°
2026-04-25 18:36 -35.27424 175.99979 36182 ft 474 kts 212°
2026-04-25 18:37 -35.30361 175.98131 35882 ft 474 kts 212°
2026-04-25 18:37 -35.33304 175.96275 35461 ft 477 kts 212°
2026-04-25 18:37 -35.36267 175.94403 35028 ft 479 kts 212°
2026-04-25 18:37 -35.39237 175.92526 34666 ft 480 kts 212°
2026-04-25 18:38 -35.42166 175.90675 34316 ft 480 kts 212°
2026-04-25 18:38 -35.45173 175.88772 33928 ft 480 kts 210°
2026-04-25 18:38 -35.48115 175.86908 33032 ft 484 kts 209°
2026-04-25 18:38 -35.51113 175.85007 32125 ft 485 kts 208°
2026-04-25 18:39 -35.54111 175.83106 31156 ft 486 kts 207°
2026-04-25 18:39 -35.57109 175.81202 30468 ft 483 kts 206°
2026-04-25 18:39 -35.60085 175.79313 29701 ft 479 kts 205°
2026-04-25 18:39 -35.63034 175.77440 28987 ft 474 kts 205°
2026-04-25 18:40 -35.65948 175.75587 28324 ft 469 kts 205°
2026-04-25 18:40 -35.68834 175.73749 27665 ft 465 kts 204°
2026-04-25 18:40 -35.71691 175.71928 27030 ft 460 kts 204°
2026-04-25 18:40 -35.74517 175.70125 26391 ft 456 kts 204°
2026-04-25 18:41 -35.77336 175.68329 25764 ft 455 kts 204°
2026-04-25 18:41 -35.80149 175.66535 25139 ft 454 kts 204°
2026-04-25 18:41 -35.82948 175.64749 24519 ft 453 kts 205°
2026-04-25 18:41 -35.85695 175.62992 23884 ft 444 kts 205°
2026-04-25 18:42 -35.88393 175.61262 23180 ft 435 kts 205°
2026-04-25 18:42 -35.90211 175.60097 22749 ft 435 kts 205°
2026-04-25 18:42 -35.93708 175.57852 21930 ft 422 kts 205°
2026-04-25 18:42 -35.96323 175.56173 21349 ft 425 kts 205°
2026-04-25 18:43 -35.98953 175.54485 20763 ft 428 kts 205°
2026-04-25 18:43 -36.01592 175.52789 20157 ft 424 kts 205°
2026-04-25 18:43 -36.04174 175.51126 19576 ft 412 kts 205°
2026-04-25 18:43 -36.06720 175.49486 19004 ft 412 kts 205°
2026-04-25 18:44 -36.08887 175.48089 18498 ft 404 kts 206°
2026-04-25 18:44 -36.11386 175.46479 17879 ft 407 kts 206°
2026-04-25 18:44 -36.13906 175.44855 17271 ft 410 kts 206°
2026-04-25 18:44 -36.16403 175.43242 16669 ft 399 kts 206°
2026-04-25 18:45 -36.18828 175.41675 16102 ft 391 kts 206°
2026-04-25 18:45 -36.21249 175.40110 15566 ft 395 kts 206°
2026-04-25 18:45 -36.23663 175.38548 15004 ft 387 kts 206°
2026-04-25 18:45 -36.26030 175.37014 14409 ft 382 kts 206°
2026-04-25 18:46 -36.28343 175.35516 13693 ft 377 kts 206°
2026-04-25 18:46 -36.30648 175.34022 13355 ft 370 kts 206°
2026-04-25 18:46 -36.32915 175.32551 13170 ft 363 kts 206°
2026-04-25 18:46 -36.35108 175.31127 12991 ft 346 kts 206°
2026-04-25 18:47 -36.37208 175.29800 12718 ft 335 kts 203°
2026-04-25 18:47 -36.39387 175.28734 12311 ft 335 kts 199°
2026-04-25 18:47 -36.41576 175.27799 11904 ft 331 kts 198°
2026-04-25 18:47 -36.43744 175.26878 11502 ft 329 kts 198°
2026-04-25 18:48 -36.45905 175.25937 11100 ft 327 kts 199°
2026-04-25 18:48 -36.48042 175.24982 10703 ft 325 kts 199°
2026-04-25 18:48 -36.50140 175.24032 10552 ft 315 kts 200°
2026-04-25 18:48 -36.52143 175.23121 10399 ft 306 kts 200°
2026-04-25 18:49 -36.54113 175.22224 10269 ft 297 kts 200°
2026-04-25 18:49 -36.56018 175.21354 10141 ft 287 kts 200°
2026-04-25 18:49 -36.57868 175.20508 9986 ft 279 kts 200°
2026-04-25 18:49 -36.59682 175.19678 9655 ft 277 kts 200°
2026-04-25 18:50 -36.61484 175.18854 9348 ft 275 kts 200°
2026-04-25 18:50 -36.63274 175.18035 9026 ft 273 kts 200°
2026-04-25 18:50 -36.65056 175.17220 8711 ft 272 kts 200°
2026-04-25 18:50 -36.66823 175.16411 8404 ft 270 kts 200°
2026-04-25 18:51 -36.68584 175.15604 8077 ft 269 kts 200°
2026-04-25 18:51 -36.69748 175.15071 7868 ft 268 kts 200°
2026-04-25 18:51 -36.72087 175.13999 7449 ft 267 kts 200°
2026-04-25 18:51 -36.73828 175.13200 7134 ft 266 kts 200°
2026-04-25 18:52 -36.75565 175.12404 6823 ft 265 kts 200°
2026-04-25 18:52 -36.77276 175.11618 6504 ft 265 kts 200°
2026-04-25 18:52 -36.79006 175.10824 6172 ft 264 kts 200°
2026-04-25 18:52 -36.80727 175.10035 5854 ft 263 kts 200°
2026-04-25 18:53 -36.82447 175.09246 5548 ft 262 kts 200°
2026-04-25 18:53 -36.84152 175.08464 5229 ft 260 kts 200°
2026-04-25 18:53 -36.85849 175.07685 4925 ft 259 kts 200°
2026-04-25 18:53 -36.87529 175.06913 4602 ft 256 kts 200°
2026-04-25 18:54 -36.90755 175.05432 4248 ft 234 kts 200°
2026-04-25 18:54 -36.92226 175.04756 4117 ft 219 kts 200°
2026-04-25 18:54 -36.93580 175.03974 3879 ft 215 kts 217°
2026-04-25 18:55 -36.94453 175.02489 3660 ft 213 kts 243°
2026-04-25 18:55 -36.95055 175.00789 3383 ft 214 kts 246°
2026-04-25 18:55 -36.95575 174.99054 3089 ft 211 kts 249°
2026-04-25 18:55 -36.96039 174.97378 2798 ft 196 kts 249°
2026-04-25 18:56 -36.96466 174.95827 2536 ft 181 kts 249°
2026-04-25 18:56 -36.96856 174.94406 2298 ft 166 kts 249°
2026-04-25 18:56 -36.97234 174.93037 2105 ft 167 kts 249°
2026-04-25 18:56 -36.97613 174.91667 1878 ft 167 kts 249°
2026-04-25 18:57 -36.97982 174.90326 1642 ft 158 kts 249°
2026-04-25 18:57 -36.98339 174.89031 1437 ft 158 kts 250°
2026-04-25 18:57 -36.98697 174.87733 1220 ft 157 kts 250°
2026-04-25 18:57 -36.98934 174.86875 1075 ft 157 kts 250°
2026-04-25 18:58 -36.99403 174.85172 791 ft 156 kts 250°
2026-04-25 18:58 -37.00110 174.82605 387 ft 156 kts 251°
2026-04-25 18:58 -37.00465 174.81317 203 ft 157 kts 250°
2026-04-25 18:59 -37.01139 174.78865 30 ft 131 kts 251°
2026-04-25 18:59 -37.01570 174.77308 30 ft 41 kts 251°
2026-04-25 19:00 -37.01555 174.77078 31 ft 10 kts 358°
2026-04-25 19:00 -37.01488 174.77098 30 ft 10 kts 13°
2026-04-25 19:01 -37.01400 174.77219 30 ft 10 kts 73°
2026-04-25 19:01 -37.01377 174.77304 30 ft 10 kts 70°
2026-04-25 19:01 -37.01349 174.77407 30 ft 14 kts 71°
2026-04-25 19:01 -37.01313 174.77534 30 ft 17 kts 71°
2026-04-25 19:02 -37.01230 174.77839 30 ft 19 kts 71°
2026-04-25 19:02 -37.01186 174.77997 30 ft 19 kts 71°
2026-04-25 19:02 -37.01142 174.78155 30 ft 19 kts 71°
2026-04-25 19:03 -37.01093 174.78267 30 ft 15 kts 37°
2026-04-25 19:03 -37.00985 174.78246 30 ft 10 kts 322°
2026-04-25 19:03 -37.00938 174.78170 30 ft 11 kts 301°
2026-04-25 19:04 -37.00863 174.78042 30 ft 7 kts 330°
2026-04-25 19:04 -37.00815 174.78018 30 ft 8 kts 339°
2026-04-25 19:05 -37.00711 174.78028 30 ft 5 kts 35°
2026-04-25 19:05 -37.00711 174.78081 30 ft 3 kts 108°
2026-04-25 19:05 -37.00716 174.78104 30 ft 1 kts 108°
2026-04-25 19:06 -37.00719 174.78113 30 ft 2 kts 108°
2026-04-25 19:06 -37.00725 174.78137 30 ft 1 kts 108°
2026-04-25 19:06 -37.00725 174.78138 30 ft 0 kts 108°